SVA5143 WIDD-OEMA

Flight info

Callsign SVA5143
Flight time 8h 44m
Altitude 36000
Route MIBEL DCT SALAX N563 SADRI/N0484F380 N563 NINOB/N0482F400 N563 REXOD L883 UMILA N569 TOKRA/N0455F280 Y511 ITRUX/N0483F400 Y511 ELONU
Aircraft B772/H-SDE2E3FGHIJ5LORVWXY/LB1D1

Departure

Time 2026-04-28 23:23
Airport Hang Nadim International Airport (WIDD)

Arrival

Time 2026-04-29 08:07
Airport Prince Mohammad Bin Abdulaziz Airport (OEMA)
Time Latitude Longitude Altitude Speed Heading
2026-04-28 22:26 1.12366 104.11689 142 ft 0 kts 311°
2026-04-28 23:12 1.12352 104.11705 114 ft 4 kts 305°
2026-04-28 23:12 1.12338 104.11728 142 ft 4 kts 291°
2026-04-28 23:13 1.12332 104.11752 142 ft 4 kts 267°
2026-04-28 23:13 1.12337 104.11772 142 ft 4 kts 227°
2026-04-28 23:13 1.12340 104.11776 142 ft 0 kts 221°
2026-04-28 23:15 1.12327 104.11765 142 ft 4 kts 221°
2026-04-28 23:15 1.12309 104.11748 142 ft 4 kts 221°
2026-04-28 23:16 1.12286 104.11728 141 ft 5 kts 221°
2026-04-28 23:16 1.12235 104.11683 141 ft 14 kts 221°
2026-04-28 23:16 1.12153 104.11611 141 ft 12 kts 221°
2026-04-28 23:16 1.12093 104.11599 141 ft 9 kts 168°
2026-04-28 23:17 1.12061 104.11605 141 ft 2 kts 173°
2026-04-28 23:17 1.12039 104.11602 141 ft 8 kts 197°
2026-04-28 23:17 1.11959 104.11538 141 ft 21 kts 223°
2026-04-28 23:17 1.11850 104.11441 141 ft 21 kts 221°
2026-04-28 23:18 1.11740 104.11345 141 ft 21 kts 221°
2026-04-28 23:18 1.11633 104.11249 141 ft 21 kts 221°
2026-04-28 23:18 1.11524 104.11153 142 ft 21 kts 221°
2026-04-28 23:18 1.11414 104.11056 142 ft 21 kts 221°
2026-04-28 23:19 1.11305 104.10960 142 ft 21 kts 221°
2026-04-28 23:19 1.11195 104.10864 141 ft 21 kts 221°
2026-04-28 23:19 1.11086 104.10768 141 ft 21 kts 221°
2026-04-28 23:19 1.10977 104.10671 141 ft 21 kts 221°
2026-04-28 23:20 1.10909 104.10611 141 ft 3 kts 221°
2026-04-28 23:20 1.10890 104.10595 141 ft 5 kts 219°
2026-04-28 23:20 1.10859 104.10583 141 ft 5 kts 189°
2026-04-28 23:20 1.10828 104.10594 140 ft 5 kts 144°
2026-04-28 23:21 1.10802 104.10621 140 ft 6 kts 133°
2026-04-28 23:21 1.10765 104.10660 139 ft 9 kts 131°
2026-04-28 23:21 1.10768 104.10712 139 ft 8 kts 48°
2026-04-28 23:21 1.10807 104.10741 139 ft 0 kts 41°
2026-04-28 23:22 1.10807 104.10742 139 ft 3 kts 41°
2026-04-28 23:22 1.10918 104.10839 140 ft 48 kts 41°
2026-04-28 23:22 1.11331 104.11205 141 ft 109 kts 41°
2026-04-28 23:22 1.12045 104.11838 145 ft 162 kts 43°
2026-04-28 23:23 1.12917 104.12616 579 ft 168 kts 42°
2026-04-28 23:23 1.13785 104.13393 1183 ft 168 kts 42°
2026-04-28 23:23 1.14673 104.14175 1791 ft 172 kts 42°
2026-04-28 23:23 1.15628 104.15010 1960 ft 192 kts 42°
2026-04-28 23:24 1.16686 104.15933 2110 ft 212 kts 42°
2026-04-28 23:24 1.17855 104.16949 2272 ft 232 kts 42°
2026-04-28 23:24 1.19130 104.18055 2489 ft 251 kts 42°
2026-04-28 23:24 1.20458 104.19212 3008 ft 255 kts 44°
2026-04-28 23:25 1.21449 104.20683 3344 ft 262 kts 73°
2026-04-28 23:25 1.21542 104.22494 3872 ft 264 kts 102°
2026-04-28 23:25 1.20871 104.24176 4432 ft 266 kts 123°
2026-04-28 23:25 1.19777 104.25720 4877 ft 272 kts 126°
2026-04-28 23:26 1.18661 104.27234 5511 ft 269 kts 129°
2026-04-28 23:26 1.17202 104.28386 5872 ft 278 kts 158°
2026-04-28 23:26 1.15308 104.28693 6451 ft 279 kts 185°
2026-04-28 23:26 1.13456 104.28121 6941 ft 283 kts 211°
2026-04-28 23:27 1.11910 104.26898 7295 ft 288 kts 221°
2026-04-28 23:27 1.10416 104.25546 7795 ft 289 kts 221°
2026-04-28 23:27 1.08932 104.24186 8352 ft 290 kts 221°
2026-04-28 23:27 1.07431 104.22812 8823 ft 294 kts 221°
2026-04-28 23:28 1.05913 104.21430 9338 ft 296 kts 221°
2026-04-28 23:28 1.04382 104.20043 9840 ft 298 kts 221°
2026-04-28 23:28 1.02831 104.18642 10239 ft 304 kts 221°
2026-04-28 23:28 1.01212 104.17183 10368 ft 323 kts 221°
2026-04-28 23:29 0.99496 104.15641 10507 ft 342 kts 221°
2026-04-28 23:29 0.97677 104.14006 10657 ft 361 kts 221°
2026-04-28 23:29 0.96425 104.12882 10850 ft 370 kts 221°
2026-04-28 23:29 0.94047 104.10368 11304 ft 380 kts 239°
2026-04-28 23:30 0.93259 104.08805 11556 ft 382 kts 245°
2026-04-28 23:30 0.92158 104.06354 12125 ft 389 kts 245°
2026-04-28 23:30 0.91029 104.03881 12880 ft 391 kts 245°
2026-04-28 23:30 0.89499 104.00598 13802 ft 396 kts 244°
2026-04-28 23:31 0.88702 103.98908 14198 ft 399 kts 244°
2026-04-28 23:31 0.87516 103.96412 14826 ft 403 kts 244°
2026-04-28 23:31 0.86285 103.93832 15477 ft 407 kts 244°
2026-04-28 23:31 0.85076 103.91299 16121 ft 411 kts 243°
2026-04-28 23:32 0.83842 103.88712 16790 ft 415 kts 243°
2026-04-28 23:32 0.82591 103.86091 17446 ft 419 kts 243°
2026-04-28 23:32 0.81241 103.83496 18075 ft 421 kts 236°
2026-04-28 23:32 0.79500 103.81133 18616 ft 424 kts 229°
2026-04-28 23:33 0.77591 103.78867 19201 ft 428 kts 229°
2026-04-28 23:33 0.75701 103.76566 19792 ft 431 kts 230°
2026-04-28 23:33 0.73841 103.74201 20369 ft 433 kts 232°
2026-04-28 23:33 0.72350 103.71584 20752 ft 440 kts 250°
2026-04-28 23:34 0.71756 103.68564 21228 ft 445 kts 268°
2026-04-28 23:34 0.71747 103.65469 21706 ft 448 kts 270°
2026-04-28 23:34 0.71753 103.62339 22230 ft 453 kts 270°
2026-04-28 23:34 0.71746 103.59178 22825 ft 455 kts 269°
2026-04-28 23:35 0.71726 103.56002 23399 ft 458 kts 269°
2026-04-28 23:35 0.71694 103.52807 23841 ft 462 kts 269°
2026-04-28 23:35 0.71654 103.49590 24272 ft 465 kts 269°
2026-04-28 23:35 0.71611 103.46385 24703 ft 467 kts 269°
2026-04-28 23:36 0.71566 103.43085 25144 ft 470 kts 269°
2026-04-28 23:36 0.71521 103.39800 25546 ft 473 kts 269°
2026-04-28 23:36 0.71477 103.36546 25933 ft 476 kts 269°
2026-04-28 23:36 0.71433 103.33222 26308 ft 479 kts 269°
2026-04-28 23:37 0.71388 103.29884 26668 ft 482 kts 269°
2026-04-28 23:37 0.71344 103.26516 27034 ft 485 kts 269°
2026-04-28 23:37 0.71299 103.23139 27382 ft 488 kts 269°
2026-04-28 23:37 0.71253 103.19743 27752 ft 490 kts 269°
2026-04-28 23:38 0.71207 103.16337 28112 ft 492 kts 269°
2026-04-28 23:38 0.71160 103.12911 28447 ft 494 kts 269°
2026-04-28 23:38 0.71113 103.09469 28755 ft 497 kts 269°
2026-04-28 23:38 0.71065 103.06001 29051 ft 500 kts 269°
2026-04-28 23:39 0.71017 103.02523 29361 ft 502 kts 269°
2026-04-28 23:39 0.70970 102.99033 29688 ft 503 kts 269°
2026-04-28 23:39 0.70922 102.95532 29976 ft 505 kts 269°
2026-04-28 23:39 0.70878 102.92016 30194 ft 504 kts 271°
2026-04-28 23:40 0.71286 102.88538 30268 ft 507 kts 287°
2026-04-28 23:40 0.72632 102.85290 30419 ft 508 kts 302°
2026-04-28 23:40 0.74776 102.82506 30639 ft 502 kts 315°
2026-04-28 23:40 0.77216 102.80016 30799 ft 505 kts 316°
2026-04-28 23:41 0.79686 102.77500 30963 ft 507 kts 315°
2026-04-28 23:41 0.82146 102.74969 31172 ft 508 kts 315°
2026-04-28 23:41 0.84597 102.72416 31381 ft 509 kts 315°
2026-04-28 23:41 0.87036 102.69848 31587 ft 509 kts 314°
2026-04-28 23:42 0.89466 102.67274 31836 ft 508 kts 314°
2026-04-28 23:42 0.91882 102.64704 32117 ft 507 kts 314°
2026-04-28 23:42 0.94295 102.62137 32393 ft 506 kts 314°
2026-04-28 23:42 0.96705 102.59573 32651 ft 505 kts 314°
2026-04-28 23:43 0.99077 102.57052 32899 ft 504 kts 314°
2026-04-28 23:43 1.01475 102.54504 33167 ft 503 kts 314°
2026-04-28 23:43 1.03875 102.51955 33433 ft 502 kts 314°
2026-04-28 23:43 1.06266 102.49417 33673 ft 501 kts 314°
2026-04-28 23:44 1.08654 102.46882 33904 ft 501 kts 314°
2026-04-28 23:44 1.11038 102.44351 34113 ft 500 kts 314°
2026-04-28 23:44 1.13421 102.41820 34302 ft 499 kts 314°
2026-04-28 23:44 1.15801 102.39293 34520 ft 499 kts 314°
2026-04-28 23:45 1.18175 102.36772 34733 ft 498 kts 314°
2026-04-28 23:45 1.20549 102.34251 34949 ft 497 kts 314°
2026-04-28 23:45 1.22917 102.31736 35172 ft 496 kts 314°
2026-04-28 23:45 1.25276 102.29231 35395 ft 495 kts 314°
2026-04-28 23:46 1.27635 102.26725 35601 ft 495 kts 314°
2026-04-28 23:46 1.29994 102.24219 35759 ft 495 kts 314°
2026-04-28 23:46 1.34726 102.19192 35849 ft 496 kts 314°
2026-04-28 23:47 1.39438 102.14193 35853 ft 492 kts 315°
2026-04-28 23:47 1.44730 102.09920 35861 ft 488 kts 326°
2026-04-28 23:48 1.50365 102.06129 35865 ft 488 kts 327°
2026-04-28 23:48 1.55951 102.02316 35866 ft 489 kts 326°
2026-04-28 23:49 1.61523 101.98393 35863 ft 490 kts 325°
2026-04-28 23:49 1.67079 101.94434 35866 ft 491 kts 325°
2026-04-28 23:50 1.72646 101.90469 35866 ft 491 kts 325°
2026-04-28 23:50 1.78221 101.86504 35865 ft 492 kts 325°
2026-04-28 23:51 1.83799 101.82540 35862 ft 492 kts 325°
2026-04-28 23:51 1.89381 101.78572 35862 ft 492 kts 325°
2026-04-28 23:52 1.94955 101.74610 35863 ft 492 kts 325°
2026-04-28 23:52 2.00545 101.70635 35865 ft 492 kts 325°
2026-04-28 23:53 2.06129 101.66665 35866 ft 492 kts 325°
2026-04-28 23:53 2.11680 101.62717 35864 ft 492 kts 326°
2026-04-28 23:54 2.17226 101.58709 35862 ft 492 kts 321°
2026-04-28 23:54 2.21737 101.53587 35874 ft 493 kts 303°
2026-04-28 23:55 2.24774 101.47439 35870 ft 494 kts 294°
2026-04-28 23:55 2.27456 101.41099 35865 ft 495 kts 294°
2026-04-28 23:56 2.30171 101.34778 35864 ft 495 kts 294°
2026-04-28 23:56 2.32935 101.28469 35860 ft 495 kts 294°
2026-04-28 23:57 2.35717 101.22153 35859 ft 496 kts 294°
2026-04-28 23:57 2.38494 101.15843 35860 ft 496 kts 294°
2026-04-28 23:58 2.41275 101.09517 35860 ft 496 kts 294°
2026-04-28 23:58 2.44053 101.03194 35862 ft 497 kts 294°
2026-04-28 23:59 2.46813 100.96911 35864 ft 497 kts 294°
2026-04-28 23:59 2.49599 100.90570 35862 ft 498 kts 294°
2026-04-29 00:00 2.52384 100.84227 35867 ft 498 kts 294°
2026-04-29 00:00 2.55169 100.77886 35863 ft 498 kts 294°
2026-04-29 00:01 2.57959 100.71535 35869 ft 499 kts 294°
2026-04-29 00:01 2.60751 100.65185 35871 ft 499 kts 294°
2026-04-29 00:02 2.63540 100.58836 35867 ft 499 kts 294°
2026-04-29 00:02 2.66333 100.52477 35870 ft 499 kts 294°
2026-04-29 00:03 2.69104 100.46167 35869 ft 499 kts 294°
2026-04-29 00:03 2.71891 100.39820 35870 ft 498 kts 294°
2026-04-29 00:04 2.74678 100.33469 35872 ft 498 kts 294°
2026-04-29 00:04 2.77464 100.27122 35875 ft 498 kts 294°
2026-04-29 00:05 2.80248 100.20777 35874 ft 498 kts 294°
2026-04-29 00:05 2.83032 100.14429 35876 ft 498 kts 294°
2026-04-29 00:06 2.85822 100.08069 35871 ft 499 kts 295°
2026-04-29 00:06 2.88612 100.01722 35878 ft 499 kts 295°
2026-04-29 00:07 2.91405 99.95370 35879 ft 499 kts 295°
2026-04-29 00:07 2.94200 99.89009 35881 ft 499 kts 295°
2026-04-29 00:08 2.96992 99.82651 35878 ft 499 kts 295°
2026-04-29 00:08 2.99761 99.76345 35876 ft 498 kts 295°
2026-04-29 00:09 3.02548 99.69996 35876 ft 498 kts 295°
2026-04-29 00:09 3.05333 99.63652 35877 ft 498 kts 295°
2026-04-29 00:10 3.08117 99.57308 35874 ft 497 kts 295°
2026-04-29 00:10 3.10894 99.50980 35875 ft 497 kts 295°
2026-04-29 00:11 3.13672 99.44647 35877 ft 497 kts 295°
2026-04-29 00:12 3.17838 99.35150 35876 ft 497 kts 295°
2026-04-29 00:12 3.20617 99.28810 35877 ft 497 kts 295°
2026-04-29 00:13 3.23396 99.22473 35877 ft 497 kts 295°
2026-04-29 00:13 3.26176 99.16129 35873 ft 498 kts 295°
2026-04-29 00:14 3.28941 99.09820 35872 ft 498 kts 295°
2026-04-29 00:14 3.31727 99.03461 35873 ft 499 kts 295°
2026-04-29 00:15 3.34512 98.97103 35872 ft 499 kts 295°
2026-04-29 00:15 3.37298 98.90742 35869 ft 499 kts 295°
2026-04-29 00:16 3.39632 98.85411 35867 ft 499 kts 295°
2026-04-29 00:16 3.42403 98.79080 35865 ft 500 kts 295°
2026-04-29 00:17 3.45190 98.72713 35869 ft 500 kts 295°
2026-04-29 00:17 3.47980 98.66334 35870 ft 500 kts 295°
2026-04-29 00:18 3.50767 98.59970 35876 ft 499 kts 295°
2026-04-29 00:18 3.53627 98.53630 35880 ft 499 kts 296°
2026-04-29 00:19 3.56520 98.47317 35883 ft 499 kts 296°
2026-04-29 00:19 3.59404 98.41007 35882 ft 499 kts 295°
2026-04-29 00:20 3.62281 98.34686 35886 ft 498 kts 295°
2026-04-29 00:20 3.65150 98.28370 35891 ft 498 kts 295°
2026-04-29 00:21 3.68021 98.22047 35901 ft 498 kts 295°
2026-04-29 00:21 3.70874 98.15767 35907 ft 498 kts 295°
2026-04-29 00:22 3.73741 98.09453 35922 ft 498 kts 295°
2026-04-29 00:22 3.76611 98.03132 35928 ft 498 kts 295°
2026-04-29 00:23 3.79480 97.96811 35943 ft 499 kts 295°
2026-04-29 00:23 3.82351 97.90484 35957 ft 498 kts 295°
2026-04-29 00:24 3.85216 97.84170 35973 ft 498 kts 295°
2026-04-29 00:24 3.88085 97.77846 35973 ft 499 kts 295°
2026-04-29 00:25 3.90949 97.71530 35992 ft 498 kts 295°
2026-04-29 00:25 3.93820 97.65199 35999 ft 498 kts 295°
2026-04-29 00:26 3.96685 97.58878 36000 ft 498 kts 296°
2026-04-29 00:26 3.99534 97.52591 36012 ft 498 kts 296°
2026-04-29 00:27 4.02400 97.46266 36014 ft 499 kts 296°
2026-04-29 00:27 4.05266 97.39939 36013 ft 499 kts 296°
2026-04-29 00:28 4.08133 97.33609 36021 ft 499 kts 296°
2026-04-29 00:28 4.10999 97.27278 36021 ft 499 kts 296°
2026-04-29 00:29 4.13867 97.20939 36025 ft 500 kts 296°
2026-04-29 00:29 4.16740 97.14591 36017 ft 500 kts 296°
2026-04-29 00:30 4.19615 97.08238 36009 ft 501 kts 296°
2026-04-29 00:30 4.22497 97.01865 35996 ft 501 kts 296°
2026-04-29 00:31 4.25373 96.95504 35997 ft 501 kts 296°
2026-04-29 00:31 4.28250 96.89140 36001 ft 501 kts 296°
2026-04-29 00:32 4.31108 96.82817 35995 ft 501 kts 296°
2026-04-29 00:32 4.33982 96.76456 35984 ft 501 kts 296°
2026-04-29 00:33 4.36859 96.70086 35979 ft 502 kts 296°
2026-04-29 00:33 4.39734 96.63720 35974 ft 502 kts 296°
2026-04-29 00:34 4.42608 96.57354 35970 ft 501 kts 296°
2026-04-29 00:34 4.45483 96.50983 35963 ft 502 kts 296°
2026-04-29 00:35 4.48361 96.44605 35945 ft 502 kts 296°
2026-04-29 00:35 4.51239 96.38227 35945 ft 502 kts 296°
2026-04-29 00:36 4.54117 96.31846 35940 ft 502 kts 296°
2026-04-29 00:36 4.56990 96.25472 35942 ft 502 kts 296°
2026-04-29 00:37 4.59865 96.19093 35936 ft 502 kts 296°
2026-04-29 00:37 4.62739 96.12715 35935 ft 502 kts 296°
2026-04-29 00:38 4.65616 96.06331 35931 ft 502 kts 296°
2026-04-29 00:38 4.68491 95.99947 35931 ft 503 kts 296°
2026-04-29 00:39 4.71367 95.93557 35926 ft 503 kts 296°
2026-04-29 00:39 4.74234 95.87189 35926 ft 503 kts 296°
2026-04-29 00:40 4.77111 95.80793 35916 ft 503 kts 296°
2026-04-29 00:40 4.79993 95.74387 35913 ft 504 kts 296°
2026-04-29 00:41 4.82870 95.67990 35909 ft 504 kts 296°
2026-04-29 00:41 4.85750 95.61585 35905 ft 504 kts 296°
2026-04-29 00:42 4.88632 95.55170 35908 ft 504 kts 296°
2026-04-29 00:42 4.91515 95.48754 35902 ft 504 kts 296°
2026-04-29 00:43 4.94397 95.42339 35899 ft 505 kts 296°
2026-04-29 00:43 4.97279 95.35920 35898 ft 505 kts 296°
2026-04-29 00:44 5.00162 95.29497 35894 ft 505 kts 296°
2026-04-29 00:44 5.03041 95.23080 35893 ft 505 kts 296°
2026-04-29 00:45 5.05928 95.16646 35893 ft 505 kts 296°
2026-04-29 00:45 5.08811 95.10216 35893 ft 506 kts 296°
2026-04-29 00:46 5.11697 95.03779 35894 ft 506 kts 296°
2026-04-29 00:46 5.14580 94.97345 35893 ft 506 kts 295°
2026-04-29 00:47 5.17466 94.90902 35894 ft 506 kts 295°
2026-04-29 00:47 5.20341 94.84492 35895 ft 507 kts 295°
2026-04-29 00:48 5.23237 94.78036 35896 ft 507 kts 295°
2026-04-29 00:48 5.26158 94.71589 35894 ft 507 kts 296°
2026-04-29 00:49 5.29109 94.65150 35895 ft 508 kts 296°
2026-04-29 00:49 5.32054 94.58708 35900 ft 508 kts 296°
2026-04-29 00:50 5.34993 94.52263 35898 ft 508 kts 296°
2026-04-29 00:50 5.37934 94.45812 35897 ft 508 kts 296°
2026-04-29 00:51 5.40866 94.39347 35900 ft 508 kts 296°
2026-04-29 00:51 5.43791 94.32883 35899 ft 509 kts 296°
2026-04-29 00:52 5.46715 94.26418 35900 ft 509 kts 296°
2026-04-29 00:52 5.49642 94.19949 35899 ft 509 kts 295°
2026-04-29 00:53 5.52550 94.13520 35901 ft 509 kts 295°
2026-04-29 00:53 5.55479 94.07043 35897 ft 509 kts 295°
2026-04-29 00:54 5.58407 94.00566 35899 ft 509 kts 295°
2026-04-29 00:54 5.61334 93.94089 35901 ft 510 kts 295°
2026-04-29 00:55 5.64264 93.87603 35900 ft 510 kts 295°
2026-04-29 00:55 5.67199 93.81104 35900 ft 510 kts 295°
2026-04-29 00:56 5.70129 93.74612 35902 ft 511 kts 295°
2026-04-29 00:56 5.73062 93.68113 35901 ft 511 kts 295°
2026-04-29 00:57 5.75992 93.61618 35903 ft 511 kts 295°
2026-04-29 00:57 5.78927 93.55110 35899 ft 511 kts 295°
2026-04-29 00:58 5.81841 93.48645 35899 ft 511 kts 295°
2026-04-29 00:58 5.84771 93.42141 35899 ft 511 kts 295°
2026-04-29 00:59 5.87703 93.35633 35899 ft 512 kts 295°
2026-04-29 00:59 5.90638 93.29113 35899 ft 512 kts 295°
2026-04-29 01:00 5.93572 93.22595 35899 ft 512 kts 295°
2026-04-29 01:00 5.96503 93.16079 35895 ft 512 kts 295°
2026-04-29 01:01 5.98940 93.10659 35901 ft 512 kts 295°
2026-04-29 01:01 6.01884 93.04142 35907 ft 512 kts 295°
2026-04-29 01:02 6.04858 92.97631 35898 ft 512 kts 295°
2026-04-29 01:02 6.07831 92.91128 35896 ft 512 kts 295°
2026-04-29 01:03 6.10797 92.84625 35898 ft 512 kts 295°
2026-04-29 01:03 6.13761 92.78119 35899 ft 512 kts 295°
2026-04-29 01:04 6.16720 92.71617 35901 ft 512 kts 295°
2026-04-29 01:04 6.19680 92.65112 35900 ft 512 kts 295°
2026-04-29 01:05 6.22640 92.58606 35899 ft 512 kts 295°
2026-04-29 01:05 6.25600 92.52096 35902 ft 512 kts 295°
2026-04-29 01:06 6.28556 92.45594 35904 ft 512 kts 295°
2026-04-29 01:06 6.31494 92.39127 35901 ft 512 kts 295°
2026-04-29 01:07 6.34452 92.32616 35900 ft 512 kts 295°
2026-04-29 01:07 6.37407 92.26108 35904 ft 512 kts 295°
2026-04-29 01:08 6.40360 92.19601 35901 ft 511 kts 295°
2026-04-29 01:08 6.43309 92.13101 35904 ft 511 kts 295°
2026-04-29 01:09 6.46261 92.06591 35901 ft 511 kts 295°
2026-04-29 01:09 6.49207 92.00093 35903 ft 511 kts 295°
2026-04-29 01:10 6.52154 91.93589 35902 ft 511 kts 295°
2026-04-29 01:10 6.55096 91.87094 35902 ft 511 kts 295°
2026-04-29 01:11 6.58040 91.80592 35900 ft 510 kts 295°
2026-04-29 01:11 6.60982 91.74092 35904 ft 510 kts 295°
2026-04-29 01:12 6.63920 91.67597 35904 ft 510 kts 295°
2026-04-29 01:12 6.66857 91.61103 35901 ft 510 kts 295°
2026-04-29 01:13 6.69794 91.54606 35901 ft 510 kts 295°
2026-04-29 01:13 6.72727 91.48116 35906 ft 510 kts 295°
2026-04-29 01:14 6.75660 91.41622 35901 ft 509 kts 294°
2026-04-29 01:14 6.78569 91.35179 35905 ft 509 kts 294°
2026-04-29 01:15 6.81493 91.28699 35905 ft 509 kts 294°
2026-04-29 01:15 6.84421 91.22208 35903 ft 508 kts 294°
2026-04-29 01:16 6.87343 91.15729 35905 ft 508 kts 294°
2026-04-29 01:16 6.90263 91.09251 35902 ft 508 kts 294°
2026-04-29 01:17 6.93179 91.02779 35904 ft 507 kts 294°
2026-04-29 01:17 6.96094 90.96305 35901 ft 507 kts 294°
2026-04-29 01:18 6.99004 90.89840 35903 ft 507 kts 294°
2026-04-29 01:18 7.03346 90.80190 35903 ft 506 kts 294°
2026-04-29 01:19 7.06250 90.73732 35901 ft 506 kts 294°
2026-04-29 01:19 7.09155 90.67269 35899 ft 506 kts 294°
2026-04-29 01:20 7.12057 90.60811 35901 ft 506 kts 294°
2026-04-29 01:20 7.14957 90.54353 35904 ft 506 kts 294°
2026-04-29 01:21 7.17855 90.47898 35902 ft 506 kts 294°
2026-04-29 01:21 7.20754 90.41436 35901 ft 506 kts 294°
2026-04-29 01:22 7.23652 90.34976 35903 ft 506 kts 294°
2026-04-29 01:22 7.26545 90.28521 35902 ft 505 kts 294°
2026-04-29 01:23 7.29435 90.22071 35901 ft 505 kts 294°
2026-04-29 01:23 7.32326 90.15618 35900 ft 505 kts 294°
2026-04-29 01:24 7.35208 90.09179 35900 ft 504 kts 294°
2026-04-29 01:24 7.38092 90.02736 35900 ft 504 kts 294°
2026-04-29 01:25 7.40950 89.96345 35902 ft 503 kts 294°
2026-04-29 01:25 7.43842 89.89878 35902 ft 503 kts 294°
2026-04-29 01:26 7.46696 89.83492 35903 ft 503 kts 294°
2026-04-29 01:26 7.49564 89.77071 35900 ft 502 kts 293°
2026-04-29 01:27 7.52427 89.70657 35900 ft 502 kts 293°
2026-04-29 01:27 7.55289 89.64245 35900 ft 501 kts 293°
2026-04-29 01:28 7.58146 89.57839 35901 ft 501 kts 293°
2026-04-29 01:28 7.61001 89.51435 35903 ft 500 kts 293°
2026-04-29 01:29 7.63850 89.45042 35900 ft 500 kts 293°
2026-04-29 01:29 7.66695 89.38654 35900 ft 499 kts 293°
2026-04-29 01:30 7.69534 89.32280 35905 ft 498 kts 293°
2026-04-29 01:30 7.70973 89.29091 36014 ft 500 kts 294°
2026-04-29 01:30 7.72425 89.25913 36279 ft 498 kts 294°
2026-04-29 01:31 7.73877 89.22752 36601 ft 495 kts 294°
2026-04-29 01:31 7.75321 89.19609 36912 ft 493 kts 294°
2026-04-29 01:31 7.76759 89.16474 37189 ft 492 kts 294°
2026-04-29 01:31 7.78192 89.13344 37404 ft 492 kts 294°
2026-04-29 01:32 7.79624 89.10211 37608 ft 491 kts 294°
2026-04-29 01:32 7.81049 89.07089 37814 ft 491 kts 294°
2026-04-29 01:32 7.83891 89.00857 37896 ft 492 kts 294°
2026-04-29 01:33 7.86740 88.94608 37898 ft 489 kts 294°
2026-04-29 01:33 7.89570 88.88399 37901 ft 486 kts 294°
2026-04-29 01:34 7.92385 88.82219 37905 ft 484 kts 294°
2026-04-29 01:34 7.95198 88.76043 37906 ft 484 kts 294°
2026-04-29 01:35 7.98011 88.69861 37920 ft 485 kts 294°
2026-04-29 01:35 8.00826 88.63674 37900 ft 485 kts 294°
2026-04-29 01:36 8.03640 88.57484 37902 ft 486 kts 294°
2026-04-29 01:36 8.06456 88.51288 37903 ft 486 kts 294°
2026-04-29 01:37 8.09273 88.45088 37918 ft 486 kts 294°
2026-04-29 01:37 8.12089 88.38887 37902 ft 486 kts 294°
2026-04-29 01:38 8.14906 88.32682 37897 ft 486 kts 294°
2026-04-29 01:38 8.17698 88.26526 37909 ft 485 kts 294°
2026-04-29 01:39 8.20504 88.20337 37911 ft 484 kts 294°
2026-04-29 01:39 8.23307 88.14154 37895 ft 483 kts 294°
2026-04-29 01:40 8.26102 88.07983 37895 ft 483 kts 294°
2026-04-29 01:40 8.28887 88.01833 37914 ft 482 kts 294°
2026-04-29 01:41 8.31670 87.95683 37913 ft 481 kts 294°
2026-04-29 01:41 8.34449 87.89539 37913 ft 480 kts 294°
2026-04-29 01:42 8.37222 87.83407 37898 ft 479 kts 294°
2026-04-29 01:42 8.39989 87.77283 37892 ft 479 kts 294°
2026-04-29 01:43 8.42752 87.71167 37897 ft 479 kts 294°
2026-04-29 01:43 8.45516 87.65045 37908 ft 479 kts 294°
2026-04-29 01:44 8.48258 87.58967 37911 ft 479 kts 294°
2026-04-29 01:44 8.51018 87.52849 37910 ft 479 kts 294°
2026-04-29 01:45 8.53781 87.46721 37892 ft 479 kts 293°
2026-04-29 01:45 8.56544 87.40589 37890 ft 479 kts 293°
2026-04-29 01:46 8.59304 87.34460 37894 ft 479 kts 293°
2026-04-29 01:46 8.62062 87.28333 37907 ft 479 kts 293°
2026-04-29 01:47 8.64820 87.22202 37890 ft 479 kts 293°
2026-04-29 01:47 8.67579 87.16067 37887 ft 479 kts 293°
2026-04-29 01:48 8.69871 87.10968 37892 ft 479 kts 293°
2026-04-29 01:48 8.72630 87.04827 37902 ft 479 kts 293°
2026-04-29 01:49 8.75384 86.98695 37889 ft 479 kts 293°
2026-04-29 01:49 8.78139 86.92555 37885 ft 479 kts 293°
2026-04-29 01:50 8.80894 86.86414 37886 ft 479 kts 293°
2026-04-29 01:50 8.83644 86.80281 37904 ft 479 kts 293°
2026-04-29 01:51 8.86397 86.74137 37899 ft 479 kts 293°
2026-04-29 01:51 8.89149 86.67993 37891 ft 479 kts 293°
2026-04-29 01:52 8.91898 86.61854 37886 ft 479 kts 293°
2026-04-29 01:52 8.94645 86.55714 37890 ft 479 kts 293°
2026-04-29 01:53 8.97388 86.49581 37902 ft 478 kts 293°
2026-04-29 01:53 9.00128 86.43451 37880 ft 478 kts 293°
2026-04-29 01:54 9.02853 86.37351 37883 ft 478 kts 293°
2026-04-29 01:54 9.05588 86.31226 37880 ft 478 kts 293°
2026-04-29 01:55 9.08317 86.25109 37897 ft 477 kts 293°
2026-04-29 01:55 9.11049 86.18985 37895 ft 477 kts 293°
2026-04-29 01:56 9.13777 86.12865 37894 ft 476 kts 293°
2026-04-29 01:56 9.16498 86.06758 37882 ft 476 kts 293°
2026-04-29 01:57 9.19220 86.00644 37878 ft 476 kts 293°
2026-04-29 01:57 9.21917 85.94585 37880 ft 475 kts 293°
2026-04-29 01:58 9.24628 85.88491 37880 ft 474 kts 293°
2026-04-29 01:58 9.27383 85.82416 37894 ft 474 kts 294°
2026-04-29 01:59 9.30203 85.76372 37889 ft 474 kts 294°
2026-04-29 01:59 9.33020 85.70339 37878 ft 474 kts 294°
2026-04-29 02:00 9.35824 85.64302 37875 ft 474 kts 294°
2026-04-29 02:00 9.38619 85.58269 37893 ft 473 kts 294°
2026-04-29 02:01 9.41414 85.52227 37875 ft 473 kts 294°
2026-04-29 02:01 9.44205 85.46193 37898 ft 473 kts 294°
2026-04-29 02:02 9.46977 85.40200 37876 ft 473 kts 294°
2026-04-29 02:02 9.49769 85.34158 37867 ft 473 kts 294°
2026-04-29 02:03 9.52564 85.28108 37872 ft 473 kts 294°
2026-04-29 02:03 9.55354 85.22063 37887 ft 473 kts 294°
2026-04-29 02:04 9.58146 85.16011 37887 ft 474 kts 294°
2026-04-29 02:04 9.60918 85.10002 37888 ft 474 kts 294°
2026-04-29 02:05 9.63710 85.03944 37870 ft 474 kts 294°
2026-04-29 02:05 9.66503 84.97880 37885 ft 475 kts 294°
2026-04-29 02:06 9.69296 84.91815 37886 ft 475 kts 294°
2026-04-29 02:06 9.72091 84.85739 37888 ft 475 kts 294°
2026-04-29 02:07 9.74886 84.79662 37869 ft 476 kts 294°
2026-04-29 02:07 9.77682 84.73581 37884 ft 476 kts 294°
2026-04-29 02:08 9.80477 84.67494 37886 ft 476 kts 294°
2026-04-29 02:08 9.83272 84.61407 37871 ft 477 kts 294°
2026-04-29 02:09 9.86073 84.55306 37878 ft 477 kts 294°
2026-04-29 02:09 9.88854 84.49242 37883 ft 477 kts 294°
2026-04-29 02:10 9.91649 84.43143 37872 ft 477 kts 294°
2026-04-29 02:10 9.94460 84.37007 37880 ft 476 kts 294°
2026-04-29 02:11 9.97233 84.30949 37876 ft 476 kts 294°
2026-04-29 02:11 10.00018 84.24864 37875 ft 475 kts 294°
2026-04-29 02:12 10.02800 84.18782 37877 ft 475 kts 294°
2026-04-29 02:12 10.05574 84.12711 37879 ft 474 kts 294°
2026-04-29 02:13 10.08346 84.06643 37877 ft 473 kts 294°
2026-04-29 02:13 10.11113 84.00583 37862 ft 473 kts 294°
2026-04-29 02:14 10.13876 83.94528 37872 ft 472 kts 294°
2026-04-29 02:14 10.16636 83.88474 37882 ft 472 kts 294°
2026-04-29 02:15 10.19376 83.82464 37874 ft 472 kts 294°
2026-04-29 02:15 10.22129 83.76419 37863 ft 472 kts 293°
2026-04-29 02:16 10.24883 83.70370 37879 ft 472 kts 293°
2026-04-29 02:16 10.27630 83.64332 37878 ft 471 kts 293°
2026-04-29 02:17 10.30380 83.58283 37878 ft 471 kts 293°
2026-04-29 02:17 10.33128 83.52237 37876 ft 471 kts 293°
2026-04-29 02:18 10.35875 83.46188 37858 ft 471 kts 293°
2026-04-29 02:18 10.38621 83.40139 37859 ft 472 kts 293°
2026-04-29 02:19 10.41364 83.34093 37875 ft 472 kts 293°
2026-04-29 02:19 10.44110 83.28035 37876 ft 472 kts 293°
2026-04-29 02:20 10.46855 83.21977 37876 ft 472 kts 293°
2026-04-29 02:20 10.49579 83.15961 37862 ft 472 kts 293°
2026-04-29 02:21 10.52325 83.09894 37857 ft 472 kts 293°
2026-04-29 02:21 10.55065 83.03834 37858 ft 472 kts 293°
2026-04-29 02:22 10.57804 82.97774 37869 ft 472 kts 293°
2026-04-29 02:22 10.60544 82.91708 37875 ft 472 kts 293°
2026-04-29 02:23 10.63278 82.85652 37873 ft 472 kts 293°
2026-04-29 02:23 10.66022 82.79597 37851 ft 471 kts 293°
2026-04-29 02:24 10.68771 82.73546 37854 ft 471 kts 293°
2026-04-29 02:25 10.72889 82.64468 37854 ft 471 kts 293°
2026-04-29 02:25 10.75628 82.58421 37853 ft 471 kts 293°
2026-04-29 02:26 10.78364 82.52377 37855 ft 470 kts 293°
2026-04-29 02:26 10.81098 82.46332 37855 ft 470 kts 293°
2026-04-29 02:27 10.83830 82.40291 37870 ft 470 kts 293°
2026-04-29 02:27 10.86542 82.34288 37852 ft 469 kts 293°
2026-04-29 02:28 10.89268 82.28251 37850 ft 469 kts 293°
2026-04-29 02:28 10.91994 82.22211 37847 ft 469 kts 294°
2026-04-29 02:29 10.94717 82.16173 37862 ft 469 kts 294°
2026-04-29 02:29 10.97437 82.10139 37867 ft 469 kts 294°
2026-04-29 02:30 11.00156 82.04102 37847 ft 469 kts 294°
2026-04-29 02:30 11.02875 81.98062 37850 ft 469 kts 294°
2026-04-29 02:31 11.05576 81.92058 37863 ft 469 kts 294°
2026-04-29 02:31 11.08291 81.86020 37861 ft 469 kts 294°
2026-04-29 02:32 11.11004 81.79980 37845 ft 469 kts 294°
2026-04-29 02:32 11.13713 81.73947 37849 ft 468 kts 294°
2026-04-29 02:33 11.16420 81.67915 37851 ft 468 kts 294°
2026-04-29 02:33 11.19127 81.61880 37846 ft 468 kts 294°
2026-04-29 02:34 11.21373 81.56869 37846 ft 467 kts 294°
2026-04-29 02:34 11.24071 81.50845 37845 ft 467 kts 294°
2026-04-29 02:35 11.26765 81.44828 37842 ft 467 kts 293°
2026-04-29 02:35 11.29461 81.38802 37847 ft 467 kts 293°
2026-04-29 02:36 11.32156 81.32774 37859 ft 467 kts 293°
2026-04-29 02:36 11.34845 81.26754 37843 ft 467 kts 293°
2026-04-29 02:37 11.37535 81.20730 37840 ft 467 kts 293°
2026-04-29 02:37 11.40220 81.14712 37842 ft 466 kts 293°
2026-04-29 02:38 11.42904 81.08693 37842 ft 466 kts 293°
2026-04-29 02:38 11.45563 81.02728 37842 ft 466 kts 293°
2026-04-29 02:39 11.48244 80.96708 37857 ft 465 kts 293°
2026-04-29 02:39 11.50920 80.90696 37843 ft 465 kts 293°
2026-04-29 02:40 11.53592 80.84688 37839 ft 465 kts 293°
2026-04-29 02:40 11.56259 80.78687 37842 ft 465 kts 293°
2026-04-29 02:41 11.58925 80.72685 37856 ft 464 kts 293°
2026-04-29 02:41 11.61590 80.66681 37843 ft 464 kts 293°
2026-04-29 02:42 11.64255 80.60674 37844 ft 464 kts 293°
2026-04-29 02:42 11.66913 80.54679 37843 ft 464 kts 293°
2026-04-29 02:43 11.69576 80.48667 37853 ft 464 kts 293°
2026-04-29 02:43 11.72236 80.42660 37854 ft 465 kts 293°
2026-04-29 02:44 11.74897 80.36644 37843 ft 465 kts 293°
2026-04-29 02:44 11.77537 80.30674 37839 ft 465 kts 293°
2026-04-29 02:45 11.80196 80.24656 37846 ft 465 kts 293°
2026-04-29 02:45 11.82855 80.18631 37857 ft 465 kts 293°
2026-04-29 02:46 11.85514 80.12606 37839 ft 466 kts 293°
2026-04-29 02:46 11.88164 80.06570 37839 ft 466 kts 293°
2026-04-29 02:47 11.90808 80.00513 37839 ft 467 kts 293°
2026-04-29 02:47 11.93449 79.94458 37862 ft 467 kts 293°
2026-04-29 02:48 11.96095 79.88392 37853 ft 468 kts 293°
2026-04-29 02:48 11.98744 79.82316 37846 ft 468 kts 293°
2026-04-29 02:49 12.01393 79.76237 37845 ft 468 kts 293°
2026-04-29 02:49 12.04038 79.70163 37863 ft 468 kts 293°
2026-04-29 02:50 12.06681 79.64087 37851 ft 468 kts 293°
2026-04-29 02:50 12.09336 79.58009 37846 ft 468 kts 293°
2026-04-29 02:51 12.12074 79.51984 37866 ft 467 kts 294°
2026-04-29 02:51 12.14818 79.46014 37847 ft 467 kts 294°
2026-04-29 02:52 12.17563 79.40011 37849 ft 466 kts 294°
2026-04-29 02:52 12.20299 79.34000 37855 ft 466 kts 294°
2026-04-29 02:53 12.23031 79.27988 37854 ft 466 kts 294°
2026-04-29 02:53 12.25763 79.21972 37865 ft 466 kts 294°
2026-04-29 02:54 12.28486 79.15972 37856 ft 465 kts 294°
2026-04-29 02:54 12.31211 79.09963 37855 ft 465 kts 294°
2026-04-29 02:55 12.33934 79.03956 37862 ft 465 kts 294°
2026-04-29 02:55 12.36649 78.97961 37883 ft 465 kts 294°
2026-04-29 02:56 12.39367 78.91957 37884 ft 465 kts 294°
2026-04-29 02:56 12.42068 78.85987 37874 ft 465 kts 293°
2026-04-29 02:57 12.44785 78.79975 37877 ft 466 kts 294°
2026-04-29 02:57 12.47507 78.73948 37878 ft 466 kts 293°
2026-04-29 02:58 12.50222 78.67930 39492 ft 469 kts 294°
2026-04-29 02:58 12.51608 78.64859 39217 ft 479 kts 294°
2026-04-29 02:58 12.53013 78.61743 38986 ft 486 kts 294°
2026-04-29 02:58 12.54437 78.58587 38746 ft 489 kts 294°
2026-04-29 02:59 12.55861 78.55427 38491 ft 488 kts 294°
2026-04-29 02:59 12.57278 78.52281 38271 ft 486 kts 294°
2026-04-29 02:59 12.58688 78.49151 38153 ft 482 kts 294°
2026-04-29 03:00 12.61473 78.42963 38019 ft 475 kts 294°
2026-04-29 03:00 12.64246 78.36796 38013 ft 480 kts 294°
2026-04-29 03:01 12.67057 78.30541 38010 ft 486 kts 294°
2026-04-29 03:01 12.69888 78.24237 38005 ft 488 kts 294°
2026-04-29 03:02 12.72712 78.17943 38000 ft 489 kts 294°
2026-04-29 03:02 12.75550 78.11615 37998 ft 488 kts 294°
2026-04-29 03:03 12.78377 78.05304 37996 ft 485 kts 294°
2026-04-29 03:03 12.81186 77.99030 37997 ft 483 kts 294°
2026-04-29 03:04 12.83977 77.92791 38000 ft 481 kts 294°
2026-04-29 03:04 12.86765 77.86553 38002 ft 480 kts 294°
2026-04-29 03:05 12.89548 77.80323 38002 ft 481 kts 294°
2026-04-29 03:05 12.92331 77.74087 38003 ft 482 kts 294°
2026-04-29 03:06 12.95117 77.67881 38001 ft 482 kts 296°
2026-04-29 03:06 12.98293 77.61809 38002 ft 483 kts 298°
2026-04-29 03:07 13.01564 77.55791 38002 ft 484 kts 298°
2026-04-29 03:07 13.04829 77.49755 38001 ft 484 kts 298°
2026-04-29 03:08 13.08074 77.43706 38001 ft 484 kts 298°
2026-04-29 03:08 13.11311 77.37648 38001 ft 484 kts 298°
2026-04-29 03:09 13.14545 77.31591 38001 ft 483 kts 298°
2026-04-29 03:09 13.17771 77.25546 38001 ft 483 kts 298°
2026-04-29 03:10 13.20978 77.19535 38001 ft 483 kts 298°
2026-04-29 03:10 13.24205 77.13483 38001 ft 483 kts 298°
2026-04-29 03:11 13.27426 77.07437 38001 ft 483 kts 298°
2026-04-29 03:11 13.30649 77.01382 38001 ft 483 kts 298°
2026-04-29 03:12 13.33871 76.95326 38001 ft 483 kts 298°
2026-04-29 03:12 13.37096 76.89261 38001 ft 483 kts 298°
2026-04-29 03:13 13.40312 76.83207 38001 ft 483 kts 298°
2026-04-29 03:13 13.43528 76.77149 38002 ft 483 kts 298°
2026-04-29 03:14 13.46744 76.71085 38001 ft 483 kts 298°
2026-04-29 03:14 13.49936 76.65064 38001 ft 483 kts 298°
2026-04-29 03:15 13.53149 76.58999 38001 ft 483 kts 298°
2026-04-29 03:15 13.56360 76.52932 38001 ft 483 kts 298°
2026-04-29 03:16 13.59571 76.46861 38001 ft 483 kts 298°
2026-04-29 03:16 13.62779 76.40792 38001 ft 483 kts 298°
2026-04-29 03:17 13.65985 76.34722 38001 ft 483 kts 298°
2026-04-29 03:17 13.69192 76.28647 38001 ft 483 kts 298°
2026-04-29 03:18 13.72393 76.22576 38001 ft 483 kts 298°
2026-04-29 03:18 13.75597 76.16497 38001 ft 483 kts 298°
2026-04-29 03:19 13.78801 76.10412 38001 ft 483 kts 298°
2026-04-29 03:19 13.81985 76.04361 38001 ft 483 kts 298°
2026-04-29 03:20 13.85181 75.98283 38002 ft 483 kts 298°
2026-04-29 03:20 13.88378 75.92200 38000 ft 483 kts 298°
2026-04-29 03:21 13.91573 75.86114 38002 ft 483 kts 298°
2026-04-29 03:21 13.94769 75.80022 38000 ft 483 kts 298°
2026-04-29 03:22 13.97421 75.74962 38002 ft 483 kts 298°
2026-04-29 03:22 14.00616 75.68865 38001 ft 483 kts 298°
2026-04-29 03:23 14.03805 75.62773 38001 ft 483 kts 298°
2026-04-29 03:23 14.06990 75.56683 38001 ft 483 kts 298°
2026-04-29 03:24 14.10177 75.50582 38001 ft 483 kts 298°
2026-04-29 03:24 14.13352 75.44481 38001 ft 483 kts 298°
2026-04-29 03:25 14.16528 75.38370 38001 ft 483 kts 298°
2026-04-29 03:25 14.19700 75.32263 38000 ft 483 kts 298°
2026-04-29 03:26 14.22852 75.26189 38002 ft 483 kts 298°
2026-04-29 03:26 14.26024 75.20075 38001 ft 483 kts 298°
2026-04-29 03:27 14.29191 75.13964 38001 ft 483 kts 298°
2026-04-29 03:27 14.32358 75.07850 38001 ft 483 kts 297°
2026-04-29 03:28 14.35527 75.01725 38001 ft 483 kts 297°
2026-04-29 03:28 14.38687 74.95613 38001 ft 483 kts 297°
2026-04-29 03:29 14.41851 74.89490 38002 ft 483 kts 297°
2026-04-29 03:29 14.45013 74.83364 38001 ft 483 kts 297°
2026-04-29 03:30 14.48151 74.77281 38001 ft 483 kts 297°
2026-04-29 03:30 14.51351 74.71171 38001 ft 483 kts 298°
2026-04-29 03:31 14.56202 74.62049 38001 ft 483 kts 298°
2026-04-29 03:31 14.59430 74.55957 38003 ft 483 kts 298°
2026-04-29 03:32 14.62654 74.49856 38000 ft 483 kts 298°
2026-04-29 03:32 14.65869 74.43763 38002 ft 483 kts 298°
2026-04-29 03:33 14.69082 74.37671 38001 ft 483 kts 298°
2026-04-29 03:33 14.72300 74.31564 38002 ft 483 kts 298°
2026-04-29 03:34 14.75490 74.25507 38002 ft 483 kts 298°
2026-04-29 03:34 14.78702 74.19403 38000 ft 483 kts 298°
2026-04-29 03:35 14.81914 74.13293 38001 ft 483 kts 298°
2026-04-29 03:35 14.85120 74.07191 38001 ft 483 kts 298°
2026-04-29 03:36 14.88326 74.01082 38001 ft 483 kts 298°
2026-04-29 03:36 14.91531 73.94973 38001 ft 483 kts 298°
2026-04-29 03:37 14.94718 73.88857 38001 ft 483 kts 298°
2026-04-29 03:37 14.97903 73.82727 38001 ft 483 kts 298°
2026-04-29 03:38 15.01089 73.76604 38001 ft 483 kts 298°
2026-04-29 03:38 15.04288 73.70479 38001 ft 483 kts 298°
2026-04-29 03:39 15.07484 73.64360 38001 ft 483 kts 298°
2026-04-29 03:39 15.10675 73.58243 38001 ft 483 kts 298°
2026-04-29 03:40 15.13865 73.52119 38001 ft 483 kts 298°
2026-04-29 03:40 15.17035 73.46028 38001 ft 483 kts 298°
2026-04-29 03:41 15.20223 73.39897 38001 ft 483 kts 298°
2026-04-29 03:41 15.23408 73.33767 38001 ft 483 kts 298°
2026-04-29 03:42 15.26595 73.27628 38001 ft 483 kts 298°
2026-04-29 03:42 15.29776 73.21497 38001 ft 483 kts 298°
2026-04-29 03:43 15.32957 73.15359 38001 ft 483 kts 298°
2026-04-29 03:43 15.36139 73.09214 38001 ft 483 kts 298°
2026-04-29 03:44 15.39298 73.03109 38001 ft 483 kts 298°
2026-04-29 03:44 15.42474 72.96966 38001 ft 483 kts 298°
2026-04-29 03:45 15.45667 72.90786 38001 ft 483 kts 298°
2026-04-29 03:45 15.48817 72.84683 38001 ft 483 kts 298°
2026-04-29 03:46 15.51988 72.78534 38001 ft 483 kts 298°
2026-04-29 03:46 15.55157 72.72383 38001 ft 483 kts 298°
2026-04-29 03:47 15.58322 72.66235 38001 ft 483 kts 297°
2026-04-29 03:47 15.61489 72.60079 38001 ft 483 kts 297°
2026-04-29 03:48 15.64654 72.53921 38001 ft 483 kts 297°
2026-04-29 03:48 15.67813 72.47768 38001 ft 483 kts 297°
2026-04-29 03:49 15.70974 72.41608 38001 ft 483 kts 297°
2026-04-29 03:49 15.74135 72.35443 38001 ft 483 kts 297°
2026-04-29 03:50 15.77292 72.29280 38001 ft 483 kts 297°
2026-04-29 03:50 15.80444 72.23119 38001 ft 483 kts 297°
2026-04-29 03:51 15.83598 72.16951 38001 ft 483 kts 297°
2026-04-29 03:51 15.86747 72.10788 38001 ft 483 kts 297°
2026-04-29 03:52 15.89876 72.04658 38001 ft 483 kts 297°
2026-04-29 03:52 15.93022 71.98489 38001 ft 483 kts 297°
2026-04-29 03:53 15.96167 71.92316 38001 ft 483 kts 297°
2026-04-29 03:53 15.99314 71.86133 38001 ft 483 kts 297°
2026-04-29 03:54 16.02457 71.79954 38001 ft 483 kts 297°
2026-04-29 03:54 16.05599 71.73770 38001 ft 483 kts 297°
2026-04-29 03:55 16.08717 71.67629 38001 ft 483 kts 297°
2026-04-29 03:55 16.11877 71.61453 38001 ft 483 kts 298°
2026-04-29 03:56 16.15098 71.55317 38001 ft 483 kts 298°
2026-04-29 03:56 16.18327 71.49178 38001 ft 483 kts 298°
2026-04-29 03:57 16.21543 71.43034 38001 ft 483 kts 298°
2026-04-29 03:57 16.24751 71.36889 38001 ft 483 kts 298°
2026-04-29 03:58 16.27958 71.30737 38001 ft 483 kts 298°
2026-04-29 03:58 16.31164 71.24585 38001 ft 483 kts 298°
2026-04-29 03:59 16.34372 71.18422 38001 ft 483 kts 298°
2026-04-29 03:59 16.37575 71.12265 38001 ft 483 kts 298°
2026-04-29 04:00 16.40775 71.06106 38001 ft 483 kts 298°
2026-04-29 04:00 16.43973 70.99947 38001 ft 483 kts 298°
2026-04-29 04:01 16.47150 70.93824 38001 ft 483 kts 298°
2026-04-29 04:01 16.50343 70.87661 38001 ft 483 kts 298°
2026-04-29 04:02 16.53539 70.81497 38006 ft 484 kts 298°
2026-04-29 04:02 16.55155 70.78408 38133 ft 486 kts 298°
2026-04-29 04:02 16.56773 70.75326 38379 ft 485 kts 298°
2026-04-29 04:03 16.58392 70.72248 38639 ft 483 kts 298°
2026-04-29 04:03 16.60007 70.69172 38902 ft 482 kts 298°
2026-04-29 04:03 16.61614 70.66109 39124 ft 482 kts 298°
2026-04-29 04:03 16.63222 70.63040 39310 ft 482 kts 298°
2026-04-29 04:04 16.64828 70.59970 39492 ft 483 kts 298°
2026-04-29 04:04 16.66434 70.56899 39680 ft 482 kts 298°
2026-04-29 04:04 16.68043 70.53821 39867 ft 482 kts 298°
2026-04-29 04:04 16.69647 70.50749 39930 ft 484 kts 298°
2026-04-29 04:05 16.72870 70.44575 39994 ft 485 kts 298°
2026-04-29 04:05 16.76091 70.38401 39997 ft 484 kts 298°
2026-04-29 04:06 16.79280 70.32282 40001 ft 483 kts 298°
2026-04-29 04:06 16.82484 70.26127 40002 ft 482 kts 298°
2026-04-29 04:07 16.85684 70.19975 40002 ft 482 kts 298°
2026-04-29 04:07 16.88881 70.13824 40001 ft 482 kts 298°
2026-04-29 04:08 16.92073 70.07676 40000 ft 482 kts 298°
2026-04-29 04:08 16.95265 70.01523 40001 ft 482 kts 298°
2026-04-29 04:09 16.98453 69.95372 40003 ft 482 kts 298°
2026-04-29 04:09 17.01642 69.89213 40001 ft 482 kts 298°
2026-04-29 04:10 17.04294 69.84086 40002 ft 482 kts 298°
2026-04-29 04:10 17.07998 69.76919 40002 ft 482 kts 298°
2026-04-29 04:11 17.11186 69.70746 40001 ft 482 kts 298°
2026-04-29 04:11 17.13834 69.65611 40002 ft 482 kts 298°
2026-04-29 04:12 17.17017 69.59435 40001 ft 483 kts 298°
2026-04-29 04:12 17.20200 69.53260 40001 ft 483 kts 298°
2026-04-29 04:13 17.23401 69.47083 40002 ft 483 kts 298°
2026-04-29 04:13 17.26600 69.40916 40002 ft 483 kts 298°
2026-04-29 04:14 17.29797 69.34741 40002 ft 483 kts 298°
2026-04-29 04:14 17.32992 69.28562 40000 ft 483 kts 298°
2026-04-29 04:15 17.36185 69.22376 40001 ft 483 kts 298°
2026-04-29 04:15 17.39374 69.16195 40004 ft 483 kts 298°
2026-04-29 04:16 17.42563 69.10007 40003 ft 483 kts 298°
2026-04-29 04:16 17.45749 69.03820 40001 ft 483 kts 298°
2026-04-29 04:17 17.48935 68.97628 40001 ft 483 kts 298°
2026-04-29 04:17 17.52116 68.91437 40001 ft 482 kts 298°
2026-04-29 04:18 17.55295 68.85246 40001 ft 482 kts 298°
2026-04-29 04:18 17.58476 68.79046 40003 ft 482 kts 298°
2026-04-29 04:19 17.61651 68.72849 40000 ft 482 kts 298°
2026-04-29 04:19 17.64798 68.66703 40002 ft 482 kts 298°
2026-04-29 04:20 17.67974 68.60493 40001 ft 482 kts 298°
2026-04-29 04:20 17.71146 68.54286 40001 ft 482 kts 298°
2026-04-29 04:21 17.74312 68.48083 40002 ft 482 kts 298°
2026-04-29 04:21 17.77477 68.41877 40001 ft 482 kts 298°
2026-04-29 04:22 17.80644 68.35661 40000 ft 482 kts 298°
2026-04-29 04:22 17.83806 68.29449 40001 ft 482 kts 297°
2026-04-29 04:23 17.86966 68.23236 40002 ft 482 kts 297°
2026-04-29 04:23 17.90125 68.17017 40001 ft 482 kts 297°
2026-04-29 04:24 17.93278 68.10804 40001 ft 482 kts 297°
2026-04-29 04:24 17.96414 68.04619 40002 ft 482 kts 297°
2026-04-29 04:25 17.99584 67.98360 40002 ft 482 kts 297°
2026-04-29 04:25 18.02732 67.92136 40002 ft 482 kts 297°
2026-04-29 04:26 18.05860 67.85949 40001 ft 482 kts 297°
2026-04-29 04:26 18.09027 67.79719 40002 ft 482 kts 298°
2026-04-29 04:27 18.12273 67.73540 40000 ft 482 kts 298°
2026-04-29 04:27 18.15532 67.67370 40001 ft 483 kts 298°
2026-04-29 04:28 18.18778 67.61196 40002 ft 483 kts 298°
2026-04-29 04:28 18.22019 67.55006 40002 ft 483 kts 298°
2026-04-29 04:29 18.25251 67.48822 40001 ft 483 kts 298°
2026-04-29 04:29 18.28483 67.42632 40001 ft 483 kts 298°
2026-04-29 04:30 18.31713 67.36441 40002 ft 483 kts 298°
2026-04-29 04:31 18.36533 67.27191 40000 ft 483 kts 298°
2026-04-29 04:31 18.39755 67.21000 40000 ft 483 kts 298°
2026-04-29 04:32 18.42981 67.14796 40001 ft 482 kts 298°
2026-04-29 04:32 18.46200 67.08599 40001 ft 482 kts 298°
2026-04-29 04:33 18.49417 67.02398 40000 ft 482 kts 298°
2026-04-29 04:33 18.52638 66.96185 40002 ft 482 kts 298°
2026-04-29 04:34 18.55854 66.89976 40001 ft 482 kts 298°
2026-04-29 04:34 18.59068 66.83762 40000 ft 482 kts 298°
2026-04-29 04:35 18.62280 66.77548 40002 ft 482 kts 298°
2026-04-29 04:35 18.65485 66.71339 40000 ft 482 kts 298°
2026-04-29 04:36 18.68695 66.65116 40000 ft 482 kts 298°
2026-04-29 04:36 18.71875 66.58945 40001 ft 482 kts 298°
2026-04-29 04:37 18.75078 66.52722 40002 ft 482 kts 298°
2026-04-29 04:37 18.78276 66.46501 40003 ft 482 kts 298°
2026-04-29 04:38 18.81474 66.40276 40001 ft 482 kts 298°
2026-04-29 04:38 18.84674 66.34039 40001 ft 482 kts 298°
2026-04-29 04:39 18.87867 66.27811 40001 ft 482 kts 298°
2026-04-29 04:39 18.91059 66.21577 40003 ft 482 kts 298°
2026-04-29 04:40 18.94249 66.15341 40002 ft 482 kts 298°
2026-04-29 04:40 18.97439 66.09100 40000 ft 482 kts 298°
2026-04-29 04:41 19.00624 66.02860 40001 ft 482 kts 298°
2026-04-29 04:41 19.03811 65.96610 40001 ft 482 kts 298°
2026-04-29 04:42 19.06971 65.90407 40002 ft 482 kts 298°
2026-04-29 04:42 19.10150 65.84161 40003 ft 482 kts 298°
2026-04-29 04:43 19.13333 65.77901 40003 ft 482 kts 298°
2026-04-29 04:43 19.16505 65.71653 40001 ft 482 kts 298°
2026-04-29 04:44 19.19682 65.65390 40002 ft 482 kts 298°
2026-04-29 04:44 19.22855 65.59129 40002 ft 482 kts 298°
2026-04-29 04:45 19.26024 65.52869 40002 ft 482 kts 298°
2026-04-29 04:45 19.29189 65.46610 40001 ft 482 kts 298°
2026-04-29 04:46 19.32354 65.40344 40002 ft 482 kts 298°
2026-04-29 04:46 19.35517 65.34076 40001 ft 482 kts 298°
2026-04-29 04:47 19.38679 65.27804 40001 ft 482 kts 297°
2026-04-29 04:47 19.41819 65.21568 40003 ft 482 kts 297°
2026-04-29 04:48 19.44974 65.15295 40000 ft 482 kts 297°
2026-04-29 04:48 19.48128 65.09016 40000 ft 482 kts 297°
2026-04-29 04:49 19.51281 65.02734 40000 ft 482 kts 297°
2026-04-29 04:49 19.54449 64.96463 40000 ft 482 kts 298°
2026-04-29 04:50 19.57669 64.90227 40001 ft 482 kts 298°
2026-04-29 04:50 19.60899 64.83981 40000 ft 482 kts 298°
2026-04-29 04:51 19.64118 64.77733 40004 ft 482 kts 298°
2026-04-29 04:51 19.67327 64.71485 40002 ft 482 kts 298°
2026-04-29 04:52 19.70535 64.65228 40003 ft 482 kts 298°
2026-04-29 04:52 19.73742 64.58968 40000 ft 482 kts 298°
2026-04-29 04:53 19.76946 64.52708 40001 ft 482 kts 298°
2026-04-29 04:53 19.80147 64.46445 40001 ft 482 kts 298°
2026-04-29 04:54 19.83323 64.40226 40002 ft 482 kts 298°
2026-04-29 04:54 19.86523 64.33953 40003 ft 482 kts 298°
2026-04-29 04:55 19.89717 64.27686 40002 ft 482 kts 298°
2026-04-29 04:55 19.92909 64.21414 40002 ft 482 kts 298°
2026-04-29 04:56 19.96098 64.15143 40001 ft 482 kts 298°
2026-04-29 04:56 19.99288 64.08862 40001 ft 482 kts 298°
2026-04-29 04:57 20.02477 64.02577 40001 ft 482 kts 298°
2026-04-29 04:57 20.05661 63.96294 40000 ft 482 kts 298°
2026-04-29 04:58 20.08845 63.90004 40003 ft 482 kts 298°
2026-04-29 04:58 20.11487 63.84779 40001 ft 482 kts 298°
2026-04-29 04:59 20.14665 63.78489 40002 ft 482 kts 298°
2026-04-29 04:59 20.17840 63.72197 40000 ft 482 kts 298°
2026-04-29 05:00 20.21014 63.65902 40003 ft 482 kts 298°
2026-04-29 05:00 20.24182 63.59608 40002 ft 482 kts 298°
2026-04-29 05:01 20.27351 63.53308 40003 ft 482 kts 298°
2026-04-29 05:01 20.30497 63.47046 40000 ft 482 kts 298°
2026-04-29 05:02 20.33660 63.40744 40001 ft 482 kts 298°
2026-04-29 05:02 20.36829 63.34422 40004 ft 482 kts 297°
2026-04-29 05:03 20.39988 63.28111 40002 ft 482 kts 297°
2026-04-29 05:03 20.43147 63.21796 40001 ft 482 kts 297°
2026-04-29 05:04 20.46300 63.15484 40001 ft 482 kts 297°
2026-04-29 05:04 20.49434 63.09204 40003 ft 482 kts 297°
2026-04-29 05:05 20.52582 63.02888 40000 ft 482 kts 297°
2026-04-29 05:05 20.55732 62.96560 40000 ft 482 kts 297°
2026-04-29 05:06 20.58878 62.90236 40002 ft 482 kts 297°
2026-04-29 05:06 20.62019 62.83912 40002 ft 482 kts 297°
2026-04-29 05:07 20.65161 62.77579 40001 ft 483 kts 297°
2026-04-29 05:07 20.68300 62.71247 40001 ft 483 kts 297°
2026-04-29 05:08 20.71442 62.64899 40000 ft 483 kts 297°
2026-04-29 05:08 20.74577 62.58558 40003 ft 483 kts 297°
2026-04-29 05:09 20.77709 62.52217 40002 ft 483 kts 297°
2026-04-29 05:09 20.80843 62.45864 40000 ft 483 kts 297°
2026-04-29 05:10 20.83969 62.39519 40000 ft 483 kts 297°
2026-04-29 05:10 20.87074 62.33211 40001 ft 483 kts 297°
2026-04-29 05:11 20.90216 62.26820 40000 ft 483 kts 297°
2026-04-29 05:11 20.93334 62.20468 40001 ft 483 kts 297°
2026-04-29 05:12 20.96454 62.14106 40002 ft 483 kts 297°
2026-04-29 05:12 20.99551 62.07786 40001 ft 483 kts 297°
2026-04-29 05:13 21.02666 62.01417 40001 ft 483 kts 297°
2026-04-29 05:13 21.05781 61.95043 40001 ft 483 kts 297°
2026-04-29 05:14 21.08890 61.88674 40000 ft 483 kts 297°
2026-04-29 05:14 21.11995 61.82304 40001 ft 483 kts 297°
2026-04-29 05:15 21.15099 61.75930 40003 ft 483 kts 297°
2026-04-29 05:15 21.18202 61.69550 40004 ft 482 kts 296°
2026-04-29 05:16 21.20458 61.62810 40006 ft 481 kts 282°
2026-04-29 05:16 21.21183 61.55697 40004 ft 481 kts 271°
2026-04-29 05:17 21.21322 61.48579 40002 ft 481 kts 271°
2026-04-29 05:17 21.21452 61.41405 40002 ft 482 kts 271°
2026-04-29 05:18 21.21624 61.34225 40001 ft 482 kts 271°
2026-04-29 05:18 21.21816 61.27043 40001 ft 482 kts 271°
2026-04-29 05:19 21.22009 61.19860 40004 ft 482 kts 271°
2026-04-29 05:19 21.22197 61.12673 40001 ft 482 kts 271°
2026-04-29 05:20 21.22379 61.05497 40001 ft 482 kts 271°
2026-04-29 05:20 21.22559 60.98315 40001 ft 482 kts 271°
2026-04-29 05:21 21.22735 60.91141 40001 ft 482 kts 271°
2026-04-29 05:21 21.22909 60.83959 40001 ft 482 kts 271°
2026-04-29 05:22 21.23079 60.76790 40001 ft 481 kts 271°
2026-04-29 05:22 21.23247 60.69616 40001 ft 481 kts 271°
2026-04-29 05:23 21.23411 60.62443 40001 ft 481 kts 271°
2026-04-29 05:23 21.23573 60.55261 40001 ft 482 kts 271°
2026-04-29 05:24 21.23731 60.48085 40001 ft 482 kts 271°
2026-04-29 05:24 21.23886 60.40901 40001 ft 482 kts 271°
2026-04-29 05:25 21.24039 60.33731 40001 ft 482 kts 271°
2026-04-29 05:25 21.24188 60.26540 40001 ft 482 kts 271°
2026-04-29 05:26 21.24334 60.19410 40001 ft 482 kts 271°
2026-04-29 05:26 21.24476 60.12238 40001 ft 482 kts 271°
2026-04-29 05:27 21.24610 60.05053 40001 ft 482 kts 271°
2026-04-29 05:27 21.24806 59.94283 40001 ft 482 kts 271°
2026-04-29 05:28 21.24934 59.87099 40001 ft 482 kts 271°
2026-04-29 05:28 21.25059 59.79917 40001 ft 482 kts 271°
2026-04-29 05:29 21.25181 59.72740 40001 ft 482 kts 271°
2026-04-29 05:29 21.25299 59.65560 40001 ft 482 kts 271°
2026-04-29 05:30 21.25415 59.58425 40001 ft 482 kts 271°
2026-04-29 05:30 21.25528 59.51243 40001 ft 482 kts 271°
2026-04-29 05:31 21.25638 59.44062 40001 ft 482 kts 270°
2026-04-29 05:31 21.25746 59.36882 40001 ft 482 kts 270°
2026-04-29 05:32 21.25851 59.29701 40001 ft 482 kts 270°
2026-04-29 05:32 21.25952 59.22517 40001 ft 482 kts 270°
2026-04-29 05:33 21.26051 59.15332 40001 ft 482 kts 270°
2026-04-29 05:33 21.26147 59.08153 40001 ft 482 kts 270°
2026-04-29 05:34 21.26240 59.00975 40002 ft 482 kts 270°
2026-04-29 05:34 21.26329 58.93789 40001 ft 482 kts 270°
2026-04-29 05:35 21.26416 58.86612 40002 ft 482 kts 270°
2026-04-29 05:35 21.26823 58.79450 40010 ft 482 kts 278°
2026-04-29 05:36 21.28377 58.72473 40003 ft 482 kts 287°
2026-04-29 05:36 21.30395 58.65621 40002 ft 482 kts 287°
2026-04-29 05:37 21.32420 58.58751 40002 ft 482 kts 287°
2026-04-29 05:37 21.34404 58.51880 40000 ft 483 kts 287°
2026-04-29 05:38 21.36359 58.45038 40000 ft 483 kts 287°
2026-04-29 05:38 21.38320 58.38158 40001 ft 483 kts 287°
2026-04-29 05:39 21.40282 58.31265 40001 ft 483 kts 287°
2026-04-29 05:39 21.42242 58.24375 40002 ft 483 kts 287°
2026-04-29 05:40 21.44199 58.17482 40002 ft 482 kts 287°
2026-04-29 05:40 21.46150 58.10598 40001 ft 482 kts 287°
2026-04-29 05:41 21.48102 58.03699 40001 ft 482 kts 287°
2026-04-29 05:41 21.50048 57.96812 40001 ft 482 kts 287°
2026-04-29 05:42 21.51994 57.89909 40000 ft 482 kts 287°
2026-04-29 05:42 21.53935 57.83014 40000 ft 482 kts 286°
2026-04-29 05:43 21.55873 57.76114 40004 ft 482 kts 286°
2026-04-29 05:43 21.57799 57.69248 40000 ft 482 kts 286°
2026-04-29 05:44 21.59731 57.62343 40004 ft 482 kts 286°
2026-04-29 05:44 21.61658 57.55432 40000 ft 482 kts 286°
2026-04-29 05:45 21.63579 57.48526 40001 ft 482 kts 286°
2026-04-29 05:45 21.65176 57.42776 40001 ft 482 kts 286°
2026-04-29 05:46 21.67417 57.34694 40000 ft 482 kts 286°
2026-04-29 05:46 21.69009 57.28942 40001 ft 482 kts 286°
2026-04-29 05:47 21.70919 57.22031 40002 ft 482 kts 286°
2026-04-29 05:47 21.72828 57.15114 40000 ft 482 kts 286°
2026-04-29 05:48 21.74735 57.08182 40003 ft 482 kts 286°
2026-04-29 05:48 21.76633 57.01267 40003 ft 483 kts 286°
2026-04-29 05:49 21.78532 56.94336 40000 ft 483 kts 286°
2026-04-29 05:49 21.80425 56.87416 40000 ft 483 kts 286°
2026-04-29 05:50 21.82316 56.80486 40000 ft 483 kts 286°
2026-04-29 05:50 21.84206 56.73554 40003 ft 482 kts 286°
2026-04-29 05:51 21.86093 56.66623 40002 ft 483 kts 286°
2026-04-29 05:51 21.87979 56.59690 40002 ft 483 kts 286°
2026-04-29 05:52 21.89863 56.52751 40000 ft 483 kts 286°
2026-04-29 05:52 21.91743 56.45813 40001 ft 483 kts 286°
2026-04-29 05:53 21.93609 56.38915 40001 ft 483 kts 286°
2026-04-29 05:53 21.95484 56.31976 40002 ft 483 kts 286°
2026-04-29 05:54 21.97367 56.25040 40003 ft 483 kts 286°
2026-04-29 05:54 21.99248 56.18100 40000 ft 483 kts 286°
2026-04-29 05:55 22.01125 56.11156 40003 ft 483 kts 286°
2026-04-29 05:55 22.02998 56.04209 40002 ft 483 kts 286°
2026-04-29 05:56 22.04855 55.97260 40002 ft 483 kts 285°
2026-04-29 05:56 22.06710 55.90296 40002 ft 483 kts 285°
2026-04-29 05:57 22.08560 55.83344 40000 ft 483 kts 285°
2026-04-29 05:57 22.10411 55.76379 40003 ft 483 kts 285°
2026-04-29 05:58 22.12256 55.69422 40002 ft 483 kts 285°
2026-04-29 05:58 22.14087 55.62507 40000 ft 483 kts 285°
2026-04-29 05:59 22.15756 55.55492 39998 ft 482 kts 279°
2026-04-29 05:59 22.16460 55.48310 40005 ft 482 kts 274°
2026-04-29 06:00 22.16984 55.41102 40001 ft 482 kts 274°
2026-04-29 06:00 22.17543 55.33895 40001 ft 482 kts 275°
2026-04-29 06:01 22.18127 55.26686 40003 ft 482 kts 275°
2026-04-29 06:01 22.18713 55.19469 40001 ft 482 kts 275°
2026-04-29 06:02 22.19293 55.12252 40004 ft 482 kts 275°
2026-04-29 06:02 22.19869 55.05038 40002 ft 482 kts 275°
2026-04-29 06:03 22.20442 54.97871 40001 ft 482 kts 275°
2026-04-29 06:03 22.21016 54.90653 40000 ft 482 kts 275°
2026-04-29 06:04 22.21588 54.83434 40001 ft 482 kts 275°
2026-04-29 06:04 22.22155 54.76223 40000 ft 482 kts 275°
2026-04-29 06:05 22.22719 54.69013 40002 ft 482 kts 274°
2026-04-29 06:05 22.23280 54.61789 40000 ft 482 kts 274°
2026-04-29 06:06 22.23838 54.54576 40001 ft 482 kts 274°
2026-04-29 06:06 22.24389 54.47406 40001 ft 482 kts 274°
2026-04-29 06:07 22.24940 54.40193 40000 ft 482 kts 274°
2026-04-29 06:07 22.25488 54.32980 40001 ft 482 kts 274°
2026-04-29 06:08 22.26033 54.25759 40001 ft 482 kts 274°
2026-04-29 06:08 22.26574 54.18545 40000 ft 482 kts 274°
2026-04-29 06:09 22.27113 54.11329 40001 ft 482 kts 274°
2026-04-29 06:09 22.27649 54.04105 40001 ft 482 kts 274°
2026-04-29 06:10 22.28181 53.96889 40000 ft 482 kts 274°
2026-04-29 06:10 22.28711 53.89660 40002 ft 482 kts 274°
2026-04-29 06:11 22.29236 53.82446 40002 ft 482 kts 274°
2026-04-29 06:11 22.29759 53.75225 40001 ft 482 kts 274°
2026-04-29 06:12 22.30278 53.68005 40003 ft 482 kts 274°
2026-04-29 06:12 22.30795 53.60783 40001 ft 482 kts 274°
2026-04-29 06:13 22.31306 53.53566 40001 ft 482 kts 274°
2026-04-29 06:13 22.31813 53.46340 40001 ft 482 kts 274°
2026-04-29 06:14 22.32317 53.39119 40001 ft 482 kts 274°
2026-04-29 06:14 22.32815 53.31946 40001 ft 482 kts 274°
2026-04-29 06:15 22.33314 53.24715 40001 ft 482 kts 274°
2026-04-29 06:15 22.33809 53.17494 40001 ft 482 kts 274°
2026-04-29 06:16 22.34301 53.10266 40001 ft 482 kts 274°
2026-04-29 06:16 22.34789 53.03042 40001 ft 482 kts 274°
2026-04-29 06:17 22.35275 52.95808 40004 ft 482 kts 274°
2026-04-29 06:17 22.35757 52.88580 40001 ft 482 kts 274°
2026-04-29 06:18 22.36237 52.81347 40001 ft 482 kts 274°
2026-04-29 06:18 22.36712 52.74123 40001 ft 482 kts 274°
2026-04-29 06:19 22.37185 52.66892 40001 ft 482 kts 274°
2026-04-29 06:19 22.37651 52.59711 40001 ft 482 kts 274°
2026-04-29 06:20 22.38117 52.52481 40001 ft 482 kts 274°
2026-04-29 06:20 22.38581 52.45248 40001 ft 482 kts 274°
2026-04-29 06:21 22.39040 52.38017 40001 ft 482 kts 274°
2026-04-29 06:21 22.39497 52.30780 40001 ft 482 kts 274°
2026-04-29 06:22 22.39951 52.23546 40001 ft 482 kts 274°
2026-04-29 06:22 22.40402 52.16307 40001 ft 482 kts 274°
2026-04-29 06:23 22.40850 52.09076 40001 ft 482 kts 274°
2026-04-29 06:23 22.41297 52.01845 40001 ft 482 kts 274°
2026-04-29 06:24 22.41740 51.94609 40001 ft 482 kts 273°
2026-04-29 06:24 22.42174 51.87364 40001 ft 482 kts 273°
2026-04-29 06:25 22.42602 51.80130 40001 ft 482 kts 273°
2026-04-29 06:25 22.43025 51.72942 40001 ft 482 kts 273°
2026-04-29 06:26 22.43449 51.65705 40001 ft 482 kts 273°
2026-04-29 06:26 22.43869 51.58463 40005 ft 482 kts 273°
2026-04-29 06:27 22.44243 51.51986 40001 ft 482 kts 273°
2026-04-29 06:27 22.44581 51.46078 40001 ft 482 kts 273°
2026-04-29 06:28 22.44993 51.38837 40002 ft 482 kts 273°
2026-04-29 06:28 22.45401 51.31596 40001 ft 482 kts 273°
2026-04-29 06:29 22.45806 51.24358 40001 ft 482 kts 273°
2026-04-29 06:29 22.46208 51.17117 40001 ft 482 kts 273°
2026-04-29 06:30 22.46808 51.06249 40001 ft 482 kts 273°
2026-04-29 06:31 22.47208 50.99055 40001 ft 482 kts 273°
2026-04-29 06:31 22.47608 50.91815 40001 ft 482 kts 273°
2026-04-29 06:32 22.48005 50.84571 40001 ft 482 kts 273°
2026-04-29 06:32 22.48398 50.77324 40001 ft 482 kts 273°
2026-04-29 06:33 22.48788 50.70085 40001 ft 482 kts 273°
2026-04-29 06:33 22.49109 50.64060 40001 ft 482 kts 273°
2026-04-29 06:34 22.49493 50.56815 40002 ft 482 kts 273°
2026-04-29 06:34 22.49873 50.49568 40003 ft 483 kts 273°
2026-04-29 06:35 22.50251 50.42317 40001 ft 483 kts 273°
2026-04-29 06:35 22.50625 50.35074 40001 ft 483 kts 273°
2026-04-29 06:36 22.50996 50.27823 40004 ft 483 kts 273°
2026-04-29 06:36 22.51363 50.20583 40001 ft 483 kts 273°
2026-04-29 06:37 22.51728 50.13331 40001 ft 483 kts 273°
2026-04-29 06:37 22.52089 50.06079 40001 ft 483 kts 273°
2026-04-29 06:38 22.52446 49.98839 40001 ft 483 kts 272°
2026-04-29 06:38 22.52801 49.91592 40001 ft 483 kts 272°
2026-04-29 06:39 22.53152 49.84339 40001 ft 483 kts 272°
2026-04-29 06:39 22.53501 49.77091 40004 ft 483 kts 272°
2026-04-29 06:40 22.54069 49.69851 40000 ft 483 kts 276°
2026-04-29 06:40 22.54818 49.62687 40001 ft 483 kts 276°
2026-04-29 06:41 22.55555 49.55472 40002 ft 483 kts 276°
2026-04-29 06:41 22.56252 49.48249 40001 ft 483 kts 275°
2026-04-29 06:42 22.56929 49.41020 40001 ft 483 kts 275°
2026-04-29 06:42 22.57603 49.33788 40000 ft 483 kts 275°
2026-04-29 06:43 22.58275 49.26560 40001 ft 483 kts 275°
2026-04-29 06:43 22.58945 49.19327 40002 ft 483 kts 275°
2026-04-29 06:44 22.59611 49.12100 40001 ft 483 kts 275°
2026-04-29 06:44 22.60275 49.04860 40001 ft 483 kts 275°
2026-04-29 06:45 22.60931 48.97676 40004 ft 483 kts 275°
2026-04-29 06:45 22.61588 48.90441 40001 ft 483 kts 275°
2026-04-29 06:46 22.62242 48.83208 40004 ft 483 kts 275°
2026-04-29 06:46 22.62893 48.75967 40000 ft 483 kts 275°
2026-04-29 06:47 22.63539 48.68740 40001 ft 483 kts 275°
2026-04-29 06:47 22.64183 48.61506 40001 ft 483 kts 275°
2026-04-29 06:48 22.64824 48.54271 40000 ft 483 kts 275°
2026-04-29 06:48 22.65461 48.47031 40002 ft 483 kts 275°
2026-04-29 06:49 22.66095 48.39794 40000 ft 483 kts 275°
2026-04-29 06:49 22.66726 48.32560 40001 ft 483 kts 275°
2026-04-29 06:50 22.67353 48.25329 40003 ft 483 kts 275°
2026-04-29 06:50 22.67978 48.18082 40001 ft 483 kts 275°
2026-04-29 06:51 22.68599 48.10845 40000 ft 483 kts 275°
2026-04-29 06:51 22.69213 48.03655 40001 ft 483 kts 275°
2026-04-29 06:52 22.69822 47.96411 40000 ft 483 kts 275°
2026-04-29 06:52 22.70424 47.89165 40002 ft 483 kts 275°
2026-04-29 06:53 22.71023 47.81922 40003 ft 483 kts 275°
2026-04-29 06:53 22.71620 47.74682 40001 ft 483 kts 275°
2026-04-29 06:54 22.72214 47.67434 40001 ft 483 kts 275°
2026-04-29 06:54 22.72803 47.60200 40002 ft 483 kts 275°
2026-04-29 06:55 22.73390 47.52955 40001 ft 483 kts 275°
2026-04-29 06:55 22.73975 47.45706 40002 ft 483 kts 275°
2026-04-29 06:56 22.74555 47.38464 40003 ft 483 kts 275°
2026-04-29 06:56 22.75131 47.31225 40000 ft 483 kts 275°
2026-04-29 06:57 22.75702 47.24023 40004 ft 483 kts 275°
2026-04-29 06:57 22.76273 47.16782 40001 ft 483 kts 275°
2026-04-29 06:58 22.76851 47.09536 40001 ft 483 kts 275°
2026-04-29 06:58 22.77431 47.02289 40002 ft 483 kts 275°
2026-04-29 06:59 22.78008 46.95040 40001 ft 483 kts 275°
2026-04-29 06:59 22.78579 46.87796 40000 ft 483 kts 275°
2026-04-29 07:00 22.79146 46.80549 39999 ft 483 kts 275°
2026-04-29 07:00 22.79711 46.73304 40001 ft 483 kts 274°
2026-04-29 07:01 22.80272 46.66052 40001 ft 483 kts 274°
2026-04-29 07:01 22.80830 46.58805 40003 ft 483 kts 274°
2026-04-29 07:02 22.81385 46.51552 40001 ft 483 kts 274°
2026-04-29 07:02 22.81934 46.44343 40002 ft 483 kts 274°
2026-04-29 07:03 22.82485 46.37045 40000 ft 483 kts 274°
2026-04-29 07:03 22.83022 46.29793 40002 ft 483 kts 274°
2026-04-29 07:04 22.83554 46.22532 40000 ft 483 kts 274°
2026-04-29 07:04 22.84084 46.15284 40001 ft 483 kts 274°
2026-04-29 07:05 22.84607 46.08073 40002 ft 483 kts 274°
2026-04-29 07:05 22.85131 46.00819 40000 ft 483 kts 274°
2026-04-29 07:06 22.85652 45.93563 40003 ft 483 kts 274°
2026-04-29 07:06 22.86170 45.86304 40004 ft 483 kts 274°
2026-04-29 07:07 22.86683 45.79051 40001 ft 483 kts 274°
2026-04-29 07:07 22.87194 45.71798 40000 ft 483 kts 274°
2026-04-29 07:08 22.87701 45.64541 40002 ft 483 kts 274°
2026-04-29 07:08 22.88205 45.57282 40000 ft 483 kts 274°
2026-04-29 07:09 22.88706 45.50023 40002 ft 483 kts 274°
2026-04-29 07:09 22.89204 45.42759 40001 ft 483 kts 274°
2026-04-29 07:10 22.89695 45.35539 40001 ft 483 kts 274°
2026-04-29 07:10 22.90186 45.28277 40003 ft 483 kts 274°
2026-04-29 07:11 22.90674 45.21012 40001 ft 483 kts 274°
2026-04-29 07:11 22.91160 45.13741 40000 ft 483 kts 274°
2026-04-29 07:12 22.91640 45.06489 40002 ft 483 kts 274°
2026-04-29 07:12 22.92119 44.99225 40003 ft 482 kts 274°
2026-04-29 07:13 22.92595 44.91965 39998 ft 483 kts 274°
2026-04-29 07:13 22.93068 44.84704 40003 ft 483 kts 274°
2026-04-29 07:14 22.93538 44.77443 40000 ft 483 kts 274°
2026-04-29 07:14 22.94029 44.70184 40003 ft 482 kts 276°
2026-04-29 07:15 22.95356 44.63054 40001 ft 483 kts 287°
2026-04-29 07:15 22.97499 44.56151 40003 ft 483 kts 289°
2026-04-29 07:16 22.99692 44.49260 40001 ft 483 kts 288°
2026-04-29 07:16 23.01839 44.42387 40001 ft 483 kts 288°
2026-04-29 07:17 23.03973 44.35465 40001 ft 483 kts 288°
2026-04-29 07:17 23.06100 44.28531 40000 ft 484 kts 288°
2026-04-29 07:18 23.08224 44.21601 40001 ft 484 kts 288°
2026-04-29 07:18 23.10342 44.14684 39999 ft 483 kts 288°
2026-04-29 07:19 23.12107 44.08912 40003 ft 483 kts 288°
2026-04-29 07:19 23.14568 44.00848 40000 ft 483 kts 288°
2026-04-29 07:20 23.16336 43.95043 39999 ft 483 kts 288°
2026-04-29 07:20 23.18448 43.88102 39999 ft 483 kts 288°
2026-04-29 07:21 23.20552 43.81171 40003 ft 483 kts 288°
2026-04-29 07:21 23.22643 43.74270 40001 ft 483 kts 288°
2026-04-29 07:22 23.24741 43.67336 40001 ft 483 kts 288°
2026-04-29 07:22 23.26840 43.60388 40000 ft 483 kts 288°
2026-04-29 07:23 23.28933 43.53441 40001 ft 483 kts 288°
2026-04-29 07:23 23.31020 43.46495 40003 ft 483 kts 288°
2026-04-29 07:24 23.33105 43.39540 40002 ft 483 kts 288°
2026-04-29 07:24 23.35188 43.32580 40001 ft 483 kts 288°
2026-04-29 07:25 23.37265 43.25626 40002 ft 483 kts 288°
2026-04-29 07:25 23.39345 43.18654 40005 ft 483 kts 288°
2026-04-29 07:26 23.41415 43.11698 40002 ft 483 kts 288°
2026-04-29 07:26 23.43476 43.04726 40002 ft 483 kts 287°
2026-04-29 07:27 23.45517 42.97802 40002 ft 483 kts 287°
2026-04-29 07:27 23.47568 42.90837 40001 ft 483 kts 287°
2026-04-29 07:28 23.49618 42.83862 40000 ft 483 kts 287°
2026-04-29 07:28 23.51668 42.76878 40001 ft 483 kts 287°
2026-04-29 07:29 23.53721 42.69904 39999 ft 483 kts 287°
2026-04-29 07:29 23.55783 42.62925 40001 ft 483 kts 287°
2026-04-29 07:30 23.57841 42.55949 40003 ft 483 kts 287°
2026-04-29 07:30 23.59880 42.49012 40000 ft 483 kts 287°
2026-04-29 07:31 23.62952 42.38540 40002 ft 483 kts 287°
2026-04-29 07:31 23.64996 42.31556 40002 ft 483 kts 287°
2026-04-29 07:32 23.67027 42.24577 40002 ft 483 kts 287°
2026-04-29 07:32 23.69042 42.17572 40003 ft 483 kts 287°
2026-04-29 07:33 23.71053 42.10569 40000 ft 483 kts 287°
2026-04-29 07:33 23.73065 42.03561 39999 ft 483 kts 287°
2026-04-29 07:34 23.75063 41.96602 40003 ft 483 kts 287°
2026-04-29 07:34 23.77111 41.89566 40000 ft 483 kts 287°
2026-04-29 07:35 23.79134 41.82611 40004 ft 483 kts 287°
2026-04-29 07:35 23.81161 41.75612 40001 ft 483 kts 287°
2026-04-29 07:36 23.83174 41.68606 40001 ft 483 kts 287°
2026-04-29 07:36 23.85181 41.61606 40004 ft 483 kts 287°
2026-04-29 07:37 23.87191 41.54589 40001 ft 483 kts 287°
2026-04-29 07:37 23.89194 41.47571 39999 ft 483 kts 287°
2026-04-29 07:38 23.91189 41.40565 40002 ft 483 kts 287°
2026-04-29 07:38 23.93185 41.33545 40005 ft 483 kts 287°
2026-04-29 07:39 23.95162 41.26577 40002 ft 483 kts 287°
2026-04-29 07:39 23.97149 41.19556 40005 ft 483 kts 287°
2026-04-29 07:40 23.99135 41.12528 40003 ft 483 kts 287°
2026-04-29 07:40 24.01115 41.05503 40000 ft 483 kts 287°
2026-04-29 07:41 24.03094 40.98472 40002 ft 483 kts 287°
2026-04-29 07:41 24.05069 40.91440 40002 ft 483 kts 287°
2026-04-29 07:42 24.06057 40.87913 39593 ft 488 kts 287°
2026-04-29 07:42 24.07056 40.84343 38898 ft 491 kts 287°
2026-04-29 07:42 24.08054 40.80774 38107 ft 491 kts 287°
2026-04-29 07:42 24.09054 40.77193 37267 ft 493 kts 287°
2026-04-29 07:43 24.10055 40.73604 36386 ft 494 kts 287°
2026-04-29 07:43 24.11059 40.70003 35448 ft 496 kts 287°
2026-04-29 07:43 24.12070 40.66371 34393 ft 499 kts 287°
2026-04-29 07:43 24.13083 40.62729 33364 ft 501 kts 287°
2026-04-29 07:44 24.14094 40.59093 32555 ft 498 kts 287°
2026-04-29 07:44 24.15085 40.55523 31758 ft 495 kts 287°
2026-04-29 07:44 24.16078 40.51935 30974 ft 491 kts 286°
2026-04-29 07:44 24.16851 40.48306 30172 ft 487 kts 279°
2026-04-29 07:45 24.17329 40.44659 29361 ft 483 kts 276°
2026-04-29 07:45 24.17682 40.41016 28489 ft 479 kts 275°
2026-04-29 07:45 24.18010 40.37403 27649 ft 475 kts 275°
2026-04-29 07:45 24.18359 40.33825 26809 ft 471 kts 276°
2026-04-29 07:46 24.18737 40.30277 25990 ft 466 kts 277°
2026-04-29 07:46 24.19137 40.26766 25180 ft 462 kts 277°
2026-04-29 07:46 24.19545 40.23303 24392 ft 457 kts 277°
2026-04-29 07:46 24.19954 40.19870 23618 ft 452 kts 277°
2026-04-29 07:47 24.20344 40.16592 22886 ft 447 kts 277°
2026-04-29 07:47 24.20742 40.13233 22093 ft 443 kts 277°
2026-04-29 07:47 24.21134 40.09900 21261 ft 440 kts 277°
2026-04-29 07:47 24.21522 40.06592 20612 ft 434 kts 277°
2026-04-29 07:48 24.21897 40.03382 20454 ft 415 kts 277°
2026-04-29 07:48 24.22256 40.00305 20279 ft 400 kts 277°
2026-04-29 07:48 24.22603 39.97333 20115 ft 386 kts 277°
2026-04-29 07:48 24.22939 39.94465 19972 ft 371 kts 278°
2026-04-29 07:49 24.23673 39.91841 19816 ft 356 kts 298°
2026-04-29 07:49 24.25168 39.89750 19642 ft 347 kts 318°
2026-04-29 07:49 24.27118 39.88247 19440 ft 339 kts 331°
2026-04-29 07:49 24.29305 39.87367 19210 ft 332 kts 347°
2026-04-29 07:50 24.31531 39.86901 19062 ft 322 kts 349°
2026-04-29 07:50 24.33734 39.86482 18756 ft 319 kts 350°
2026-04-29 07:50 24.35865 39.86074 18584 ft 311 kts 349°
2026-04-29 07:50 24.37972 39.85657 18337 ft 305 kts 349°
2026-04-29 07:51 24.40058 39.85232 18000 ft 303 kts 349°
2026-04-29 07:51 24.42134 39.84800 17637 ft 303 kts 349°
2026-04-29 07:51 24.44200 39.84367 17280 ft 302 kts 348°
2026-04-29 07:51 24.46245 39.83938 16910 ft 293 kts 348°
2026-04-29 07:52 24.48228 39.83514 16149 ft 289 kts 348°
2026-04-29 07:52 24.50203 39.83088 15508 ft 289 kts 348°
2026-04-29 07:52 24.52143 39.82670 15390 ft 280 kts 348°
2026-04-29 07:52 24.54022 39.82265 15253 ft 271 kts 348°
2026-04-29 07:53 24.55843 39.81873 15122 ft 262 kts 348°
2026-04-29 07:53 24.57621 39.81493 14853 ft 259 kts 348°
2026-04-29 07:53 24.59382 39.81120 14590 ft 257 kts 348°
2026-04-29 07:53 24.61128 39.80750 14307 ft 255 kts 348°
2026-04-29 07:54 24.62864 39.80383 14021 ft 253 kts 348°
2026-04-29 07:54 24.64587 39.80017 13740 ft 251 kts 348°
2026-04-29 07:54 24.66291 39.79656 13440 ft 249 kts 348°
2026-04-29 07:54 24.67985 39.79296 13160 ft 247 kts 348°
2026-04-29 07:55 24.69679 39.78936 12893 ft 251 kts 348°
2026-04-29 07:55 24.71415 39.78568 12601 ft 257 kts 348°
2026-04-29 07:55 24.73152 39.78198 12304 ft 256 kts 348°
2026-04-29 07:55 24.74897 39.77828 12007 ft 255 kts 348°
2026-04-29 07:56 24.76630 39.77460 11711 ft 253 kts 348°
2026-04-29 07:56 24.78357 39.77092 11431 ft 252 kts 348°
2026-04-29 07:56 24.80071 39.76728 11149 ft 251 kts 348°
2026-04-29 07:56 24.81781 39.76364 10868 ft 249 kts 348°
2026-04-29 07:57 24.83483 39.76002 10589 ft 248 kts 348°
2026-04-29 07:57 24.85177 39.75643 10284 ft 248 kts 348°
2026-04-29 07:57 24.86862 39.75285 10022 ft 246 kts 348°
2026-04-29 07:57 24.88545 39.74927 9744 ft 246 kts 348°
2026-04-29 07:58 24.90212 39.74551 9440 ft 241 kts 341°
2026-04-29 07:58 24.91597 39.73595 9155 ft 235 kts 309°
2026-04-29 07:58 24.92318 39.72023 8901 ft 230 kts 282°
2026-04-29 07:58 24.92377 39.70291 8627 ft 227 kts 261°
2026-04-29 07:59 24.92064 39.68561 8372 ft 234 kts 257°
2026-04-29 07:59 24.91699 39.66805 8085 ft 236 kts 256°
2026-04-29 07:59 24.91095 39.65155 7763 ft 234 kts 231°
2026-04-29 07:59 24.89842 39.64076 7511 ft 234 kts 201°
2026-04-29 08:00 24.88223 39.63784 7218 ft 234 kts 175°
2026-04-29 08:00 24.86635 39.64062 6955 ft 235 kts 169°
2026-04-29 08:00 24.85032 39.64433 6673 ft 235 kts 168°
2026-04-29 08:00 24.83431 39.64802 6392 ft 235 kts 169°
2026-04-29 08:01 24.81855 39.65150 6160 ft 228 kts 169°
2026-04-29 08:01 24.80331 39.65483 6135 ft 216 kts 169°
2026-04-29 08:01 24.78908 39.65784 6144 ft 200 kts 170°
2026-04-29 08:01 24.77565 39.66073 5947 ft 197 kts 169°
2026-04-29 08:02 24.76224 39.66360 5730 ft 196 kts 169°
2026-04-29 08:02 24.74889 39.66647 5476 ft 195 kts 170°
2026-04-29 08:02 24.73558 39.66935 5216 ft 194 kts 170°
2026-04-29 08:02 24.72237 39.67213 4991 ft 193 kts 170°
2026-04-29 08:03 24.70956 39.67487 4756 ft 179 kts 170°
2026-04-29 08:03 24.69790 39.67736 4539 ft 162 kts 170°
2026-04-29 08:03 24.68742 39.67963 4307 ft 143 kts 170°
2026-04-29 08:03 24.67796 39.68165 4210 ft 141 kts 171°
2026-04-29 08:04 24.66812 39.68375 3986 ft 142 kts 171°
2026-04-29 08:04 24.65870 39.68573 3796 ft 133 kts 170°
2026-04-29 08:04 24.64927 39.68776 3652 ft 145 kts 170°
2026-04-29 08:04 24.63939 39.68988 3464 ft 141 kts 170°
2026-04-29 08:05 24.62980 39.69192 3288 ft 139 kts 170°
2026-04-29 08:05 24.62057 39.69389 3125 ft 139 kts 170°
2026-04-29 08:05 24.61084 39.69600 2950 ft 142 kts 171°
2026-04-29 08:05 24.60869 39.69645 2898 ft 142 kts 171°
2026-04-29 08:06 24.60631 39.69695 2835 ft 141 kts 171°
2026-04-29 08:06 24.59684 39.69897 2585 ft 135 kts 168°
2026-04-29 08:06 24.58749 39.70100 2427 ft 139 kts 168°
2026-04-29 08:06 24.57796 39.70297 2203 ft 139 kts 168°
2026-04-29 08:07 24.56875 39.70503 2115 ft 125 kts 167°
2026-04-29 08:07 24.56369 39.70606 2118 ft 92 kts 169°
2026-04-29 08:07 24.55916 39.70700 2116 ft 40 kts 169°
2026-04-29 08:07 24.55600 39.70766 2113 ft 32 kts 169°
2026-04-29 08:08 24.55468 39.70798 2114 ft 27 kts 165°
2026-04-29 08:08 24.55323 39.70869 2114 ft 13 kts 143°
2026-04-29 08:08 24.55266 39.70916 2114 ft 10 kts 143°
2026-04-29 08:08 24.55219 39.70965 2113 ft 8 kts 118°
2026-04-29 08:09 24.55215 39.71019 2112 ft 7 kts 80°
2026-04-29 08:09 24.55225 39.71073 2111 ft 7 kts 78°
2026-04-29 08:09 24.55235 39.71127 2110 ft 6 kts 78°
2026-04-29 08:09 24.55244 39.71174 2110 ft 6 kts 72°
2026-04-29 08:10 24.55274 39.71207 2109 ft 6 kts 28°
2026-04-29 08:10 24.55318 39.71213 2109 ft 6 kts 352°
2026-04-29 08:10 24.55362 39.71202 2109 ft 7 kts 348°
2026-04-29 08:10 24.55407 39.71193 2109 ft 7 kts 349°
2026-04-29 08:11 24.55472 39.71180 2109 ft 11 kts 350°
2026-04-29 08:11 24.55543 39.71165 2109 ft 8 kts 349°
2026-04-29 08:11 24.55582 39.71163 2109 ft 3 kts 23°
2026-04-29 08:11 24.55595 39.71187 2109 ft 4 kts 68°
2026-04-29 08:12 24.55602 39.71213 2109 ft 2 kts 78°
2026-04-29 08:12 24.55603 39.71223 2109 ft 1 kts 78°
2026-04-29 08:12 24.55605 39.71232 2109 ft 1 kts 79°
2026-04-29 08:12 24.55607 39.71241 2109 ft 1 kts 79°
2026-04-29 08:13 24.55608 39.71246 2109 ft 0 kts 79°
2026-04-29 08:13 24.55608 39.71248 2109 ft 0 kts 79°